Time,TemperatureF,DewpointF,PressureIn,WindDirection,WindDirectionDegrees,WindSpeedMPH,WindSpeedGustMPH,Humidity,HourlyPrecipIn,Conditions,Clouds,dailyrainin,SoftwareType,DateUTC
2013-04-06 00:00:00,66.2,64.7,29.97,WNW,286,0.0,0.0,95,0.00,,---,0.00,VWS V14.01,2013-04-06 04:00:00,
2013-04-06 00:05:00,66.2,64.7,29.97,WNW,286,0.0,3.1,95,0.00,,---,0.00,VWS V14.01,2013-04-06 04:05:00,
2013-04-06 00:06:00,66.0,64.6,29.97,WNW,286,0.0,0.0,95,0.00,,---,0.00,VWS V14.01,2013-04-06 04:06:00,
2013-04-06 00:10:00,66.0,64.2,29.97,WNW,286,3.1,3.1,94,0.00,,---,0.00,VWS V14.01,2013-04-06 04:10:00,
2013-04-06 00:11:00,66.0,64.2,29.97,WNW,286,0.0,0.0,94,0.00,,---,0.00,VWS V14.01,2013-04-06 04:11:00,
2013-04-06 00:15:00,66.0,64.2,29.97,WNW,286,0.0,0.0,94,0.00,,---,0.00,VWS V14.01,2013-04-06 04:15:00,
2013-04-06 00:16:00,65.8,63.8,29.97,WNW,286,0.0,2.2,93,0.00,,---,0.00,VWS V14.01,2013-04-06 04:16:00,
2013-04-06 00:20:00,65.8,63.8,29.97,WNW,286,0.0,0.0,93,0.00,,---,0.00,VWS V14.01,2013-04-06 04:20:00,
2013-04-06 00:21:00,65.8,63.8,29.97,WNW,286,0.0,0.0,93,0.00,,---,0.00,VWS V14.01,2013-04-06 04:21:00,
2013-04-06 00:25:00,65.8,63.5,29.97,WNW,286,0.0,3.6,92,0.00,,---,0.00,VWS V14.01,2013-04-06 04:25:00,
2013-04-06 00:26:00,65.8,63.5,29.97,WNW,286,0.0,0.0,92,0.00,,---,0.00,VWS V14.01,2013-04-06 04:26:00,
2013-04-06 00:27:00,65.8,63.5,29.97,WNW,286,0.0,0.0,92,0.00,,---,0.00,VWS V14.01,2013-04-06 04:27:00,
2013-04-06 00:30:00,65.8,63.1,29.97,WNW,286,0.0,0.0,91,0.00,,---,0.00,VWS V14.01,2013-04-06 04:30:00,
2013-04-06 00:31:00,65.8,63.1,29.97,WNW,286,0.0,0.0,91,0.00,,---,0.00,VWS V14.01,2013-04-06 04:31:00,
2013-04-06 00:32:00,65.8,63.1,29.97,WNW,282,0.0,0.0,91,0.00,,---,0.00,VWS V14.01,2013-04-06 04:32:00,
2013-04-06 00:36:00,65.7,63.0,29.97,WNW,282,0.0,0.0,91,0.00,,---,0.00,VWS V14.01,2013-04-06 04:36:00,
2013-04-06 00:37:00,65.7,62.7,29.97,WNW,282,0.0,0.0,90,0.00,,---,0.00,VWS V14.01,2013-04-06 04:37:00,
2013-04-06 00:41:00,65.7,62.7,29.97,WNW,282,2.7,2.7,90,0.00,,---,0.00,VWS V14.01,2013-04-06 04:41:00,
2013-04-06 00:42:00,65.7,62.7,29.97,WNW,282,0.0,0.0,90,0.00,,---,0.00,VWS V14.01,2013-04-06 04:42:00,
2013-04-06 00:46:00,65.7,62.7,29.97,WNW,282,0.0,0.0,90,0.00,,---,0.00,VWS V14.01,2013-04-06 04:46:00,
2013-04-06 00:47:00,65.7,62.7,29.97,WNW,282,0.0,0.0,90,0.00,,---,0.00,VWS V14.01,2013-04-06 04:47:00,
2013-04-06 00:51:00,65.5,62.5,29.97,WNW,282,0.0,0.0,90,0.00,,---,0.00,VWS V14.01,2013-04-06 04:51:00,
2013-04-06 00:52:00,65.5,62.5,29.97,WNW,282,0.0,0.0,90,0.00,,---,0.00,VWS V14.01,2013-04-06 04:52:00,
2013-04-06 00:53:00,65.5,62.5,29.97,WNW,282,0.0,0.0,90,0.00,,---,0.00,VWS V14.01,2013-04-06 04:53:00,
2013-04-06 00:57:00,65.5,62.5,29.97,WNW,282,0.0,0.0,90,0.00,,---,0.00,VWS V14.01,2013-04-06 04:57:00,
2013-04-06 00:58:00,65.5,62.5,29.97,WNW,282,0.0,0.0,90,0.00,,---,0.00,VWS V14.01,2013-04-06 04:58:00,
2013-04-06 01:02:00,65.3,62.3,29.97,WNW,282,0.0,0.0,90,0.00,,---,0.00,VWS V14.01,2013-04-06 05:02:00,
2013-04-06 01:03:00,65.3,62.3,29.97,WNW,282,0.0,0.0,90,0.00,,---,0.00,VWS V14.01,2013-04-06 05:03:00,
2013-04-06 01:07:00,65.3,62.3,29.97,WNW,282,0.0,0.0,90,0.00,,---,0.00,VWS V14.01,2013-04-06 05:07:00,
2013-04-06 01:08:00,65.3,62.3,29.97,WNW,282,0.0,0.0,90,0.00,,---,0.00,VWS V14.01,2013-04-06 05:08:00,
2013-04-06 01:12:00,65.1,62.1,29.97,WNW,282,0.0,0.0,90,0.00,,---,0.00,VWS V14.01,2013-04-06 05:12:00,
2013-04-06 01:13:00,65.1,62.1,29.97,WNW,282,0.0,0.0,90,0.00,,---,0.00,VWS V14.01,2013-04-06 05:13:00,
2013-04-06 01:17:00,64.9,61.9,29.97,WNW,282,0.0,0.0,90,0.00,,---,0.00,VWS V14.01,2013-04-06 05:17:00,
2013-04-06 01:18:00,64.9,61.9,29.97,WNW,282,0.0,0.0,90,0.00,,---,0.00,VWS V14.01,2013-04-06 05:18:00,
2013-04-06 01:19:00,64.9,61.9,29.97,WNW,282,0.0,0.0,90,0.00,,---,0.00,VWS V14.01,2013-04-06 05:19:00,
2013-04-06 01:22:00,64.9,61.6,29.97,WNW,282,0.0,0.0,89,0.00,,---,0.00,VWS V14.01,2013-04-06 05:22:00,
2013-04-06 01:23:00,64.8,61.5,29.97,WNW,282,0.0,0.0,89,0.00,,---,0.00,VWS V14.01,2013-04-06 05:23:00,
2013-04-06 01:24:00,64.8,61.5,29.97,WNW,282,0.0,0.0,89,0.00,,---,0.00,VWS V14.01,2013-04-06 05:24:00,
2013-04-06 01:27:00,64.9,61.6,29.97,WNW,282,0.0,0.0,89,0.00,,---,0.00,VWS V14.01,2013-04-06 05:27:00,
2013-04-06 01:28:00,64.9,61.6,29.97,WNW,282,0.0,0.0,89,0.00,,---,0.00,VWS V14.01,2013-04-06 05:28:00,
2013-04-06 01:29:00,64.9,61.6,29.97,WNW,282,0.0,0.0,89,0.00,,---,0.00,VWS V14.01,2013-04-06 05:29:00,
2013-04-06 01:32:00,65.1,61.8,29.97,WNW,282,0.0,0.0,89,0.00,,---,0.00,VWS V14.01,2013-04-06 05:32:00,
2013-04-06 01:33:00,65.1,61.8,29.97,WNW,282,0.0,0.0,89,0.00,,---,0.00,VWS V14.01,2013-04-06 05:33:00,
2013-04-06 01:34:00,65.1,61.8,29.97,WNW,282,0.0,0.0,89,0.00,,---,0.00,VWS V14.01,2013-04-06 05:34:00,
2013-04-06 01:38:00,65.1,61.8,29.97,WNW,282,0.0,0.0,89,0.00,,---,0.00,VWS V14.01,2013-04-06 05:38:00,
2013-04-06 01:40:00,64.9,61.6,29.97,WNW,282,0.0,0.0,89,0.00,,---,0.00,VWS V14.01,2013-04-06 05:40:00,
2013-04-06 01:43:00,64.9,61.6,29.97,WNW,282,0.0,2.7,89,0.00,,---,0.00,VWS V14.01,2013-04-06 05:43:00,
2013-04-06 01:44:00,64.8,61.5,29.97,WNW,282,0.0,0.0,89,0.00,,---,0.00,VWS V14.01,2013-04-06 05:44:00,
2013-04-06 01:45:00,64.8,61.5,29.97,WNW,282,0.0,0.0,89,0.00,,---,0.00,VWS V14.01,2013-04-06 05:45:00,
2013-04-06 01:49:00,64.8,61.5,29.97,WNW,282,0.0,2.2,89,0.00,,---,0.00,VWS V14.01,2013-04-06 05:49:00,
2013-04-06 01:50:00,64.6,61.3,29.97,WNW,282,0.0,0.0,89,0.00,,---,0.00,VWS V14.01,2013-04-06 05:50:00,
2013-04-06 01:54:00,64.6,61.3,29.97,WNW,282,0.0,0.0,89,0.00,,---,0.00,VWS V14.01,2013-04-06 05:54:00,
2013-04-06 01:55:00,64.6,61.3,29.97,WNW,282,0.0,0.0,89,0.00,,---,0.00,VWS V14.01,2013-04-06 05:55:00,
2013-04-06 01:59:00,64.4,61.1,29.97,WNW,282,0.0,0.0,89,0.00,,---,0.00,VWS V14.01,2013-04-06 05:59:00,
2013-04-06 02:01:00,64.4,61.1,29.97,WNW,282,0.0,0.0,89,0.00,,---,0.00,VWS V14.01,2013-04-06 06:01:00,
2013-04-06 02:04:00,64.4,61.1,29.97,WNW,282,0.0,0.0,89,0.00,,---,0.00,VWS V14.01,2013-04-06 06:04:00,
2013-04-06 02:05:00,64.4,61.1,29.97,WNW,282,0.0,0.0,89,0.00,,---,0.00,VWS V14.01,2013-04-06 06:05:00,
2013-04-06 02:06:00,64.4,61.1,29.97,WNW,282,0.0,0.0,89,0.00,,---,0.00,VWS V14.01,2013-04-06 06:06:00,
2013-04-06 02:09:00,64.4,61.1,29.97,WNW,282,0.0,0.0,89,0.00,,---,0.00,VWS V14.01,2013-04-06 06:09:00,
2013-04-06 02:10:00,64.4,61.1,29.97,WNW,282,0.0,0.0,89,0.00,,---,0.00,VWS V14.01,2013-04-06 06:10:00,
2013-04-06 02:11:00,64.4,61.1,29.97,WNW,282,0.0,0.0,89,0.00,,---,0.00,VWS V14.01,2013-04-06 06:11:00,
2013-04-06 02:15:00,64.4,61.1,29.97,WNW,282,0.0,0.0,89,0.00,,---,0.00,VWS V14.01,2013-04-06 06:15:00,
2013-04-06 02:16:00,64.4,61.1,29.97,WNW,282,0.0,0.0,89,0.00,,---,0.00,VWS V14.01,2013-04-06 06:16:00,
2013-04-06 02:20:00,64.4,61.4,29.97,WNW,282,0.0,0.0,90,0.00,,---,0.00,VWS V14.01,2013-04-06 06:20:00,
2013-04-06 02:21:00,64.4,61.4,29.97,WNW,282,0.0,0.0,90,0.00,,---,0.00,VWS V14.01,2013-04-06 06:21:00,
2013-04-06 02:25:00,64.4,61.4,29.97,West,280,2.2,3.6,90,0.00,,---,0.00,VWS V14.01,2013-04-06 06:25:00,
2013-04-06 02:26:00,64.4,61.4,29.97,West,280,2.2,2.2,90,0.00,,---,0.00,VWS V14.01,2013-04-06 06:26:00,
2013-04-06 02:30:00,64.4,61.4,29.97,West,281,0.0,3.1,90,0.00,,---,0.00,VWS V14.01,2013-04-06 06:30:00,
2013-04-06 02:31:00,64.4,61.4,29.97,WNW,287,3.1,3.1,90,0.00,,---,0.00,VWS V14.01,2013-04-06 06:31:00,
2013-04-06 02:35:00,64.4,61.7,29.97,North,353,0.0,0.0,91,0.00,,---,0.00,VWS V14.01,2013-04-06 06:35:00,
2013-04-06 02:36:00,64.4,61.7,29.97,North,353,0.0,0.0,91,0.00,,---,0.00,VWS V14.01,2013-04-06 06:36:00,
2013-04-06 02:37:00,64.4,61.7,29.97,North,353,3.1,3.6,91,0.00,,---,0.00,VWS V14.01,2013-04-06 06:37:00,
2013-04-06 02:40:00,64.4,61.7,29.97,North,353,0.0,0.0,91,0.00,,---,0.00,VWS V14.01,2013-04-06 06:40:00,
2013-04-06 02:41:00,64.4,61.7,29.97,North,353,0.0,0.0,91,0.00,,---,0.00,VWS V14.01,2013-04-06 06:41:00,
2013-04-06 02:42:00,64.4,61.7,29.97,North,353,0.0,0.0,91,0.00,,---,0.00,VWS V14.01,2013-04-06 06:42:00,
2013-04-06 02:45:00,64.4,61.7,29.97,NW,320,4.9,4.9,91,0.00,,---,0.00,VWS V14.01,2013-04-06 06:45:00,
2013-04-06 02:47:00,64.6,61.9,29.97,NNW,341,3.6,5.4,91,0.00,,---,0.00,VWS V14.01,2013-04-06 06:47:00,
2013-04-06 02:50:00,64.6,62.2,29.97,NNW,339,0.0,0.0,92,0.00,,---,0.00,VWS V14.01,2013-04-06 06:50:00,
2013-04-06 02:52:00,64.6,62.2,29.97,North,9,0.0,0.0,92,0.00,,---,0.00,VWS V14.01,2013-04-06 06:52:00,
2013-04-06 02:56:00,64.8,62.4,29.97,WNW,298,3.1,3.1,92,0.00,,---,0.00,VWS V14.01,2013-04-06 06:56:00,
2013-04-06 02:57:00,64.8,62.4,29.97,NW,321,0.0,0.0,92,0.00,,---,0.00,VWS V14.01,2013-04-06 06:57:00,
2013-04-06 03:01:00,64.8,62.4,29.97,North,353,5.8,8.1,92,0.00,,---,0.00,VWS V14.01,2013-04-06 07:01:00,
2013-04-06 03:02:00,64.8,62.4,29.97,NNW,345,0.0,2.7,92,0.00,,---,0.00,VWS V14.01,2013-04-06 07:02:00,
2013-04-06 03:03:00,64.8,62.4,29.97,NW,316,3.6,3.6,92,0.00,,---,0.00,VWS V14.01,2013-04-06 07:03:00,
2013-04-06 03:06:00,64.8,62.4,29.97,North,349,2.7,8.1,92,0.00,,---,0.00,VWS V14.01,2013-04-06 07:06:00,
2013-04-06 03:07:00,64.8,62.4,29.97,NNW,339,2.7,3.6,92,0.00,,---,0.00,VWS V14.01,2013-04-06 07:07:00,
2013-04-06 03:08:00,64.8,62.4,29.97,North,10,4.0,4.0,92,0.00,,---,0.00,VWS V14.01,2013-04-06 07:08:00,
2013-04-06 03:12:00,64.8,62.4,29.97,NNW,338,3.6,6.3,92,0.00,,---,0.00,VWS V14.01,2013-04-06 07:12:00,
2013-04-06 03:13:00,64.8,62.4,29.97,NNW,338,0.0,0.0,92,0.00,,---,0.00,VWS V14.01,2013-04-06 07:13:00,
2013-04-06 03:17:00,64.6,62.2,29.97,North,0,0.0,0.0,92,0.00,,---,0.00,VWS V14.01,2013-04-06 07:17:00,
2013-04-06 03:18:00,64.6,62.2,29.97,NW,318,4.5,6.3,92,0.00,,---,0.00,VWS V14.01,2013-04-06 07:18:00,
2013-04-06 03:19:00,64.6,62.2,29.97,NNW,328,4.0,4.0,92,0.00,,---,0.00,VWS V14.01,2013-04-06 07:19:00,
2013-04-06 03:22:00,64.6,62.2,29.97,NNE,15,5.8,5.8,92,0.00,,---,0.00,VWS V14.01,2013-04-06 07:22:00,
2013-04-06 03:23:00,64.6,62.2,29.97,NW,316,2.7,2.7,92,0.00,,---,0.00,VWS V14.01,2013-04-06 07:23:00,
2013-04-06 03:24:00,64.6,62.2,29.97,WNW,298,7.6,7.6,92,0.00,,---,0.00,VWS V14.01,2013-04-06 07:24:00,
2013-04-06 03:27:00,64.6,61.9,29.97,NNW,334,2.7,2.7,91,0.00,,---,0.00,VWS V14.01,2013-04-06 07:27:00,
2013-04-06 03:28:00,64.6,61.9,29.97,NNW,334,2.7,2.7,91,0.00,,---,0.00,VWS V14.01,2013-04-06 07:28:00,
2013-04-06 03:30:00,64.6,61.9,29.97,NW,324,4.0,4.0,91,0.00,,---,0.00,VWS V14.01,2013-04-06 07:30:00,
2013-04-06 03:32:00,64.6,61.9,29.97,NW,325,5.4,5.4,91,0.00,,---,0.00,VWS V14.01,2013-04-06 07:32:00,
2013-04-06 03:33:00,64.6,61.9,29.97,NW,325,5.4,5.4,91,0.00,,---,0.00,VWS V14.01,2013-04-06 07:33:00,
2013-04-06 03:35:00,64.4,61.7,29.97,NW,317,0.0,5.4,91,0.00,,---,0.00,VWS V14.01,2013-04-06 07:35:00,
2013-04-06 03:37:00,64.4,61.7,29.97,NW,317,0.0,0.0,91,0.00,,---,0.00,VWS V14.01,2013-04-06 07:37:00,
2013-04-06 03:38:00,64.4,61.7,29.97,NW,317,0.0,0.0,91,0.00,,---,0.00,VWS V14.01,2013-04-06 07:38:00,
2013-04-06 03:40:00,64.2,61.5,29.97,WNW,293,4.0,4.0,91,0.00,,---,0.00,VWS V14.01,2013-04-06 07:40:00,
2013-04-06 03:42:00,64.2,61.5,29.97,WNW,293,4.0,4.0,91,0.00,,---,0.00,VWS V14.01,2013-04-06 07:42:00,
2013-04-06 03:45:00,64.2,61.5,29.97,WNW,293,4.0,4.0,91,0.00,,---,0.00,VWS V14.01,2013-04-06 07:45:00,
2013-04-06 03:46:00,64.2,61.5,29.97,WNW,293,4.0,4.0,91,0.00,,---,0.00,VWS V14.01,2013-04-06 07:46:00,
2013-04-06 03:47:00,64.2,61.5,29.97,NNW,333,5.4,5.4,91,0.00,,---,0.00,VWS V14.01,2013-04-06 07:47:00,
2013-04-06 03:50:00,64.2,61.5,29.97,WNW,297,4.9,4.9,91,0.00,,---,0.00,VWS V14.01,2013-04-06 07:50:00,
2013-04-06 03:51:00,64.2,61.5,29.97,WNW,297,4.9,4.9,91,0.00,,---,0.00,VWS V14.01,2013-04-06 07:51:00,
2013-04-06 03:52:00,63.9,60.9,29.97,WNW,297,4.9,4.9,90,0.00,,---,0.00,VWS V14.01,2013-04-06 07:52:00,
2013-04-06 03:55:00,63.9,60.9,29.97,NNW,336,3.1,3.1,90,0.00,,---,0.00,VWS V14.01,2013-04-06 07:55:00,
2013-04-06 03:56:00,63.9,60.9,29.97,NNW,336,3.1,3.1,90,0.00,,---,0.00,VWS V14.01,2013-04-06 07:56:00,
2013-04-06 03:57:00,63.9,60.9,29.97,NNW,336,3.1,3.1,90,0.00,,---,0.00,VWS V14.01,2013-04-06 07:57:00,
2013-04-06 03:58:00,63.9,60.9,29.97,NW,312,3.1,5.8,90,0.00,,---,0.00,VWS V14.01,2013-04-06 07:58:00,
2013-04-06 04:00:00,63.9,60.9,29.97,North,11,4.9,5.4,90,0.00,,---,0.00,VWS V14.01,2013-04-06 08:00:00,
2013-04-06 04:01:00,63.7,60.7,29.97,North,11,4.9,4.9,90,0.00,,---,0.00,VWS V14.01,2013-04-06 08:01:00,
2013-04-06 04:02:00,63.7,60.7,29.97,North,11,4.9,4.9,90,0.00,,---,0.00,VWS V14.01,2013-04-06 08:02:00,
2013-04-06 04:03:00,63.7,60.7,29.97,North,11,4.9,4.9,90,0.00,,---,0.00,VWS V14.01,2013-04-06 08:03:00,
2013-04-06 04:05:00,63.7,60.7,29.97,NNW,340,3.1,3.1,90,0.00,,---,0.00,VWS V14.01,2013-04-06 08:05:00,
2013-04-06 04:06:00,63.7,60.7,29.97,NNW,332,2.7,3.1,90,0.00,,---,0.00,VWS V14.01,2013-04-06 08:06:00,
2013-04-06 04:07:00,63.7,60.7,29.97,North,353,2.7,2.7,90,0.00,,---,0.00,VWS V14.01,2013-04-06 08:07:00,
2013-04-06 04:08:00,63.7,60.7,29.97,North,353,2.7,2.7,90,0.00,,---,0.00,VWS V14.01,2013-04-06 08:08:00,
2013-04-06 04:10:00,63.5,60.5,29.97,NNW,333,3.1,3.1,90,0.00,,---,0.00,VWS V14.01,2013-04-06 08:10:00,
2013-04-06 04:11:00,63.5,60.5,29.97,NNW,333,3.1,3.1,90,0.00,,---,0.00,VWS V14.01,2013-04-06 08:11:00,
2013-04-06 04:12:00,63.5,60.5,29.97,NNW,333,3.1,3.1,90,0.00,,---,0.00,VWS V14.01,2013-04-06 08:12:00,
2013-04-06 04:13:00,63.5,60.5,29.97,NNW,333,3.1,3.1,90,0.00,,---,0.00,VWS V14.01,2013-04-06 08:13:00,
2013-04-06 04:15:00,63.5,60.5,29.97,NNW,342,3.6,3.6,90,0.00,,---,0.00,VWS V14.01,2013-04-06 08:15:00,
2013-04-06 04:16:00,63.5,60.5,29.97,NNW,342,3.6,3.6,90,0.00,,---,0.00,VWS V14.01,2013-04-06 08:16:00,
2013-04-06 04:18:00,63.5,60.5,29.97,NNW,342,3.6,3.6,90,0.00,,---,0.00,VWS V14.01,2013-04-06 08:18:00,
2013-04-06 04:20:00,63.3,60.3,29.97,North,5,2.7,2.7,90,0.00,,---,0.00,VWS V14.01,2013-04-06 08:20:00,
2013-04-06 04:21:00,63.3,60.3,29.97,North,5,2.7,2.7,90,0.00,,---,0.00,VWS V14.01,2013-04-06 08:21:00,
2013-04-06 04:23:00,63.3,60.3,29.97,North,5,2.7,2.7,90,0.00,,---,0.00,VWS V14.01,2013-04-06 08:23:00,
2013-04-06 04:25:00,63.3,60.3,29.97,North,5,2.7,2.7,90,0.00,,---,0.00,VWS V14.01,2013-04-06 08:25:00,
2013-04-06 04:27:00,63.3,60.3,29.97,North,5,2.7,2.7,90,0.00,,---,0.00,VWS V14.01,2013-04-06 08:27:00,
2013-04-06 04:28:00,63.3,60.3,29.97,North,5,2.7,2.7,90,0.00,,---,0.00,VWS V14.01,2013-04-06 08:28:00,
2013-04-06 04:30:00,63.1,59.8,29.97,North,5,2.7,2.7,89,0.00,,---,0.00,VWS V14.01,2013-04-06 08:30:00,
2013-04-06 04:32:00,63.1,59.8,29.97,North,5,2.7,2.7,89,0.00,,---,0.00,VWS V14.01,2013-04-06 08:32:00,
2013-04-06 04:33:00,63.1,59.8,29.97,North,5,2.7,2.7,89,0.00,,---,0.00,VWS V14.01,2013-04-06 08:33:00,
2013-04-06 04:34:00,63.1,59.8,29.97,NNE,22,3.6,3.6,89,0.00,,---,0.00,VWS V14.01,2013-04-06 08:34:00,
2013-04-06 04:35:00,63.1,59.8,29.97,NNE,22,3.6,3.6,89,0.00,,---,0.00,VWS V14.01,2013-04-06 08:35:00,
2013-04-06 04:37:00,63.0,59.7,29.97,NNE,22,3.6,3.6,89,0.00,,---,0.00,VWS V14.01,2013-04-06 08:37:00,
2013-04-06 04:38:00,63.0,59.7,29.97,NNE,22,3.6,3.6,89,0.00,,---,0.00,VWS V14.01,2013-04-06 08:38:00,
2013-04-06 04:39:00,63.0,59.7,29.97,NNE,22,3.6,3.6,89,0.00,,---,0.00,VWS V14.01,2013-04-06 08:39:00,
2013-04-06 04:40:00,63.0,59.7,29.97,NNE,22,3.6,3.6,89,0.00,,---,0.00,VWS V14.01,2013-04-06 08:40:00,
2013-04-06 04:43:00,63.0,59.7,29.97,NNW,330,6.3,6.3,89,0.00,,---,0.00,VWS V14.01,2013-04-06 08:43:00,
2013-04-06 04:45:00,63.0,59.7,29.97,NNW,330,6.3,6.3,89,0.00,,---,0.00,VWS V14.01,2013-04-06 08:45:00,
2013-04-06 04:48:00,63.0,59.7,29.97,NNW,330,6.3,6.3,89,0.00,,---,0.00,VWS V14.01,2013-04-06 08:48:00,
2013-04-06 04:50:00,63.0,59.7,29.97,NNW,330,6.3,6.3,89,0.00,,---,0.00,VWS V14.01,2013-04-06 08:50:00,
2013-04-06 04:51:00,63.0,59.7,29.97,NNW,330,6.3,6.3,89,0.00,,---,0.00,VWS V14.01,2013-04-06 08:51:00,
2013-04-06 04:53:00,63.0,59.7,29.97,NNW,330,6.3,6.3,89,0.00,,---,0.00,VWS V14.01,2013-04-06 08:53:00,
2013-04-06 04:55:00,62.6,59.3,29.97,NNW,330,6.3,6.3,89,0.00,,---,0.00,VWS V14.01,2013-04-06 08:55:00,
2013-04-06 04:56:00,62.6,59.3,29.97,NNW,330,6.3,6.3,89,0.00,,---,0.00,VWS V14.01,2013-04-06 08:56:00,
2013-04-06 04:59:00,62.6,59.3,29.97,NNW,330,6.3,6.3,89,0.00,,---,0.67,VWS V14.01,2013-04-06 08:59:00,
2013-04-06 05:01:00,62.6,59.3,29.97,NNW,330,6.3,6.3,89,0.00,,---,0.00,VWS V14.01,2013-04-06 09:01:00,
2013-04-06 05:02:00,62.6,59.3,29.97,NNW,330,6.3,6.3,89,0.00,,---,0.00,VWS V14.01,2013-04-06 09:02:00,
2013-04-06 05:04:00,62.6,59.3,29.97,NNW,330,6.3,6.3,89,0.00,,---,0.00,VWS V14.01,2013-04-06 09:04:00,
2013-04-06 05:06:00,62.6,59.3,29.97,NNW,330,6.3,6.3,89,0.00,,---,0.00,VWS V14.01,2013-04-06 09:06:00,
2013-04-06 05:07:00,62.6,59.3,29.97,NNW,330,6.3,6.3,89,0.00,,---,0.00,VWS V14.01,2013-04-06 09:07:00,
2013-04-06 05:09:00,62.6,59.3,29.97,NNW,330,6.3,6.3,89,0.00,,---,0.00,VWS V14.01,2013-04-06 09:09:00,
2013-04-06 05:10:00,62.6,59.3,29.97,NNW,330,6.3,6.3,89,0.00,,---,0.00,VWS V14.01,2013-04-06 09:10:00,
2013-04-06 05:11:00,62.4,59.5,29.97,NNW,330,6.3,6.3,90,0.00,,---,0.00,VWS V14.01,2013-04-06 09:11:00,
2013-04-06 05:12:00,62.4,59.5,29.97,NNW,330,6.3,6.3,90,0.00,,---,0.00,VWS V14.01,2013-04-06 09:12:00,
2013-04-06 05:14:00,62.4,59.5,29.97,NNW,330,6.3,6.3,90,0.00,,---,0.00,VWS V14.01,2013-04-06 09:14:00,
2013-04-06 05:15:00,62.4,59.5,29.97,NW,320,3.1,3.1,90,0.00,,---,0.00,VWS V14.01,2013-04-06 09:15:00,
2013-04-06 05:16:00,62.4,59.5,29.97,NW,320,3.1,3.1,90,0.00,,---,0.00,VWS V14.01,2013-04-06 09:16:00,
2013-04-06 05:17:00,62.4,59.5,29.97,NW,320,3.1,3.1,90,0.00,,---,0.00,VWS V14.01,2013-04-06 09:17:00,
2013-04-06 05:19:00,62.4,59.5,29.97,NNW,335,5.4,5.4,90,0.00,,---,0.00,VWS V14.01,2013-04-06 09:19:00,
2013-04-06 05:20:00,62.4,59.5,29.97,NNW,335,5.4,5.4,90,0.00,,---,0.00,VWS V14.01,2013-04-06 09:20:00,
2013-04-06 05:21:00,62.4,59.5,29.97,NNW,335,5.4,5.4,90,0.00,,---,0.00,VWS V14.01,2013-04-06 09:21:00,
2013-04-06 05:22:00,62.2,59.3,29.97,NNW,335,5.4,5.4,90,0.00,,---,0.00,VWS V14.01,2013-04-06 09:22:00,
2013-04-06 05:24:00,62.2,59.3,29.97,NNW,335,5.4,5.4,90,0.00,,---,0.00,VWS V14.01,2013-04-06 09:24:00,
2013-04-06 05:25:00,62.2,59.3,29.97,NNW,335,5.4,5.4,90,0.00,,---,0.00,VWS V14.01,2013-04-06 09:25:00,
2013-04-06 05:27:00,62.2,59.3,29.97,NNW,335,5.4,5.4,90,0.00,,---,0.00,VWS V14.01,2013-04-06 09:27:00,
2013-04-06 05:28:00,62.2,59.3,29.97,NNW,335,5.4,5.4,90,0.00,,---,0.00,VWS V14.01,2013-04-06 09:28:00,
2013-04-06 05:30:00,62.2,59.3,29.97,NNW,341,3.1,3.1,90,0.00,,---,0.00,VWS V14.01,2013-04-06 09:30:00,
2013-04-06 05:32:00,62.2,59.3,30.00,NNW,341,3.1,3.1,90,0.00,,---,0.00,VWS V14.01,2013-04-06 09:32:00,
2013-04-06 05:33:00,62.2,59.3,30.00,NNW,341,3.1,3.1,90,0.00,,---,0.00,VWS V14.01,2013-04-06 09:33:00,
2013-04-06 05:35:00,62.2,59.3,30.00,NNW,341,3.1,3.1,90,0.00,,---,0.00,VWS V14.01,2013-04-06 09:35:00,
2013-04-06 05:37:00,62.2,59.3,30.00,NNW,341,3.1,3.1,90,0.00,,---,0.00,VWS V14.01,2013-04-06 09:37:00,
2013-04-06 05:39:00,62.2,59.3,30.00,NNW,341,3.1,3.1,90,0.00,,---,0.00,VWS V14.01,2013-04-06 09:39:00,
2013-04-06 05:40:00,62.2,59.3,30.00,NNW,341,3.1,3.1,90,0.00,,---,0.00,VWS V14.01,2013-04-06 09:40:00,
2013-04-06 05:41:00,62.2,59.3,30.00,NNW,341,3.1,3.1,90,0.00,,---,0.00,VWS V14.01,2013-04-06 09:41:00,
2013-04-06 05:42:00,61.9,58.9,30.00,NNW,341,3.1,3.1,90,0.00,,---,0.00,VWS V14.01,2013-04-06 09:42:00,
2013-04-06 05:44:00,61.9,58.9,30.00,NNW,341,3.1,3.1,90,0.00,,---,0.00,VWS V14.01,2013-04-06 09:44:00,
2013-04-06 05:45:00,61.9,58.9,30.00,NNW,341,3.1,3.1,90,0.00,,---,0.00,VWS V14.01,2013-04-06 09:45:00,
2013-04-06 05:46:00,61.9,58.9,30.00,NNW,341,3.1,3.1,90,0.00,,---,0.00,VWS V14.01,2013-04-06 09:46:00,
2013-04-06 05:47:00,61.9,58.9,30.00,NNW,341,3.1,3.1,90,0.00,,---,0.00,VWS V14.01,2013-04-06 09:47:00,
2013-04-06 05:49:00,61.9,58.9,30.00,NNW,341,3.1,3.1,90,0.00,,---,0.00,VWS V14.01,2013-04-06 09:49:00,
2013-04-06 05:50:00,61.9,58.9,30.00,NNW,341,3.1,3.1,90,0.00,,---,0.00,VWS V14.01,2013-04-06 09:50:00,
2013-04-06 05:51:00,61.9,58.9,30.00,NNW,341,3.1,3.1,90,0.00,,---,0.00,VWS V14.01,2013-04-06 09:51:00,
2013-04-06 05:53:00,61.9,58.9,30.00,NNW,341,3.1,3.1,90,0.00,,---,0.00,VWS V14.01,2013-04-06 09:53:00,
2013-04-06 05:54:00,61.9,58.9,30.00,NNW,341,3.1,3.1,90,0.00,,---,0.00,VWS V14.01,2013-04-06 09:54:00,
2013-04-06 05:56:00,61.9,58.9,30.00,NNW,341,3.1,3.1,90,0.00,,---,0.00,VWS V14.01,2013-04-06 09:56:00,
2013-04-06 05:59:00,61.5,58.6,30.00,NNW,341,3.1,3.1,90,0.00,,---,0.00,VWS V14.01,2013-04-06 09:59:00,
2013-04-06 06:02:00,61.5,58.6,30.00,NW,322,3.6,3.6,90,0.00,,---,0.00,VWS V14.01,2013-04-06 10:02:00,
2013-04-06 06:04:00,61.5,58.6,30.00,NW,322,3.6,3.6,90,0.00,,---,0.00,VWS V14.01,2013-04-06 10:04:00,
2013-04-06 06:07:00,61.5,58.6,30.00,NW,326,4.9,4.9,90,0.00,,---,0.00,VWS V14.01,2013-04-06 10:07:00,
2013-04-06 06:09:00,61.3,58.4,30.00,NW,326,4.9,4.9,90,0.00,,---,0.00,VWS V14.01,2013-04-06 10:09:00,
2013-04-06 06:12:00,61.3,58.4,30.00,NW,326,4.9,4.9,90,0.00,,---,0.00,VWS V14.01,2013-04-06 10:12:00,
2013-04-06 06:13:00,61.3,58.4,30.00,NW,326,4.9,4.9,90,0.00,,---,0.00,VWS V14.01,2013-04-06 10:13:00,
2013-04-06 06:14:00,61.3,58.4,30.00,NW,326,4.9,4.9,90,0.00,,---,0.00,VWS V14.01,2013-04-06 10:14:00,
2013-04-06 06:18:00,61.2,58.2,30.00,NNW,334,2.2,2.2,90,0.00,,---,0.00,VWS V14.01,2013-04-06 10:18:00,
2013-04-06 06:19:00,61.2,58.2,30.00,NNW,334,2.2,2.2,90,0.00,,---,0.00,VWS V14.01,2013-04-06 10:19:00,
2013-04-06 06:20:00,61.2,58.2,30.00,NNW,334,2.2,2.2,90,0.00,,---,0.00,VWS V14.01,2013-04-06 10:20:00,
2013-04-06 06:23:00,61.0,58.0,30.00,NNW,334,2.2,2.2,90,0.00,,---,0.00,VWS V14.01,2013-04-06 10:23:00,
2013-04-06 06:24:00,61.0,58.0,30.00,NNW,334,2.2,2.2,90,0.00,,---,0.00,VWS V14.01,2013-04-06 10:24:00,
2013-04-06 06:25:00,61.0,58.0,30.00,NNW,334,2.2,2.2,90,0.00,,---,0.00,VWS V14.01,2013-04-06 10:25:00,
2013-04-06 06:28:00,60.8,57.5,30.00,NNW,334,2.2,2.2,89,0.00,,---,0.00,VWS V14.01,2013-04-06 10:28:00,
2013-04-06 06:30:00,60.8,57.5,30.00,NNW,334,2.2,2.2,89,0.00,,---,0.00,VWS V14.01,2013-04-06 10:30:00,
2013-04-06 06:33:00,60.8,57.5,30.00,NNW,334,2.2,2.2,89,0.00,,---,0.00,VWS V14.01,2013-04-06 10:33:00,
2013-04-06 06:34:00,60.8,57.5,30.00,North,353,2.7,2.7,89,0.00,,---,0.00,VWS V14.01,2013-04-06 10:34:00,
2013-04-06 06:35:00,60.8,57.5,30.00,North,353,2.7,2.7,89,0.00,,---,0.00,VWS V14.01,2013-04-06 10:35:00,
2013-04-06 06:38:00,60.6,57.7,30.00,North,353,2.7,2.7,90,0.00,,---,0.00,VWS V14.01,2013-04-06 10:38:00,
2013-04-06 06:39:00,60.6,57.7,30.00,North,353,2.7,2.7,90,0.00,,---,0.00,VWS V14.01,2013-04-06 10:39:00,
2013-04-06 06:40:00,60.6,57.7,30.00,North,353,2.7,2.7,90,0.00,,---,0.00,VWS V14.01,2013-04-06 10:40:00,
2013-04-06 06:43:00,60.4,57.5,30.00,North,353,2.7,2.7,90,0.00,,---,0.00,VWS V14.01,2013-04-06 10:43:00,
2013-04-06 06:44:00,60.4,57.5,30.00,North,353,2.7,2.7,90,0.00,,---,0.00,VWS V14.01,2013-04-06 10:44:00,
2013-04-06 06:45:00,60.4,57.5,30.00,North,353,2.7,2.7,90,0.00,,---,0.00,VWS V14.01,2013-04-06 10:45:00,
2013-04-06 06:48:00,60.4,57.5,30.00,North,353,2.7,2.7,90,0.00,,---,0.00,VWS V14.01,2013-04-06 10:48:00,
2013-04-06 06:49:00,60.4,57.5,30.00,North,353,2.7,2.7,90,0.00,,---,0.00,VWS V14.01,2013-04-06 10:49:00,
2013-04-06 06:50:00,60.3,57.3,30.00,North,353,2.7,2.7,90,0.00,,---,0.00,VWS V14.01,2013-04-06 10:50:00,
2013-04-06 06:53:00,60.3,57.3,30.00,North,353,2.7,2.7,90,0.00,,---,0.00,VWS V14.01,2013-04-06 10:53:00,
2013-04-06 06:54:00,60.3,57.3,30.00,North,353,2.7,2.7,90,0.00,,---,0.00,VWS V14.01,2013-04-06 10:54:00,
2013-04-06 06:55:00,60.3,57.3,30.00,North,353,2.7,2.7,90,0.00,,---,0.00,VWS V14.01,2013-04-06 10:55:00,
2013-04-06 06:56:00,60.3,57.3,30.00,North,353,2.7,2.7,90,0.00,,---,0.00,VWS V14.01,2013-04-06 10:56:00,
2013-04-06 06:58:00,60.3,57.3,30.00,North,353,2.7,2.7,90,0.00,,---,0.00,VWS V14.01,2013-04-06 10:58:00,
2013-04-06 07:00:00,60.3,57.3,30.00,North,353,2.7,2.7,90,0.00,,---,0.00,VWS V14.01,2013-04-06 11:00:00,
2013-04-06 07:01:00,60.3,57.3,30.00,North,353,2.7,2.7,90,0.00,,---,0.00,VWS V14.01,2013-04-06 11:01:00,
2013-04-06 07:04:00,60.1,57.1,30.00,North,353,2.7,2.7,90,0.00,,---,0.00,VWS V14.01,2013-04-06 11:04:00,
2013-04-06 07:05:00,60.1,57.1,30.00,North,353,2.7,2.7,90,0.00,,---,0.00,VWS V14.01,2013-04-06 11:05:00,
2013-04-06 07:06:00,60.1,57.1,30.00,North,353,2.7,2.7,90,0.00,,---,0.00,VWS V14.01,2013-04-06 11:06:00,
2013-04-06 07:09:00,60.1,57.1,30.00,North,353,2.7,2.7,90,0.00,,---,0.00,VWS V14.01,2013-04-06 11:09:00,
2013-04-06 07:10:00,60.1,57.1,30.00,North,353,2.7,2.7,90,0.00,,---,0.00,VWS V14.01,2013-04-06 11:10:00,
2013-04-06 07:11:00,60.1,57.1,30.00,North,353,2.7,2.7,90,0.00,,---,0.00,VWS V14.01,2013-04-06 11:11:00,
2013-04-06 07:14:00,60.1,57.1,30.00,North,353,2.7,2.7,90,0.00,,---,0.00,VWS V14.01,2013-04-06 11:14:00,
2013-04-06 07:15:00,60.1,57.1,30.00,North,353,2.7,2.7,90,0.00,,---,0.00,VWS V14.01,2013-04-06 11:15:00,
2013-04-06 07:16:00,60.1,57.1,30.00,North,353,2.7,2.7,90,0.00,,---,0.00,VWS V14.01,2013-04-06 11:16:00,
2013-04-06 07:20:00,60.1,57.5,30.03,North,353,2.7,2.7,91,0.00,,---,0.00,VWS V14.01,2013-04-06 11:20:00,
2013-04-06 07:21:00,60.1,57.5,30.03,North,353,2.7,2.7,91,0.00,,---,0.00,VWS V14.01,2013-04-06 11:21:00,
2013-04-06 07:22:00,60.1,57.5,30.03,North,353,2.7,2.7,91,0.00,,---,0.00,VWS V14.01,2013-04-06 11:22:00,
2013-04-06 07:25:00,60.1,57.5,30.03,North,353,2.7,2.7,91,0.00,,---,0.00,VWS V14.01,2013-04-06 11:25:00,
2013-04-06 07:26:00,60.1,57.5,30.03,North,353,2.7,2.7,91,0.00,,---,0.00,VWS V14.01,2013-04-06 11:26:00,
2013-04-06 07:27:00,60.1,57.5,30.03,North,353,2.7,2.7,91,0.00,,---,0.00,VWS V14.01,2013-04-06 11:27:00,
2013-04-06 07:31:00,60.1,57.5,30.03,WNW,298,2.2,2.2,91,0.00,,---,0.00,VWS V14.01,2013-04-06 11:31:00,
2013-04-06 07:32:00,60.1,57.5,30.03,WNW,298,2.2,2.2,91,0.00,,---,0.00,VWS V14.01,2013-04-06 11:32:00,
2013-04-06 07:33:00,60.1,57.5,30.03,WNW,298,2.2,2.2,91,0.00,,---,0.00,VWS V14.01,2013-04-06 11:33:00,
2013-04-06 07:37:00,60.1,57.5,30.03,WNW,292,3.1,3.1,91,0.00,,---,0.00,VWS V14.01,2013-04-06 11:37:00,
2013-04-06 07:38:00,60.1,57.5,30.03,WNW,292,3.1,3.1,91,0.00,,---,0.00,VWS V14.01,2013-04-06 11:38:00,
2013-04-06 07:42:00,60.1,57.1,30.03,WNW,292,3.1,3.1,90,0.00,,---,0.00,VWS V14.01,2013-04-06 11:42:00,
2013-04-06 07:43:00,60.1,57.1,30.03,WNW,292,3.1,3.1,90,0.00,,---,0.00,VWS V14.01,2013-04-06 11:43:00,
2013-04-06 07:48:00,60.4,57.8,30.03,NNW,330,0.0,0.0,91,0.00,,---,0.00,VWS V14.01,2013-04-06 11:48:00,
2013-04-06 07:49:00,60.4,57.8,30.03,NNW,330,0.0,0.0,91,0.00,,---,0.00,VWS V14.01,2013-04-06 11:49:00,
2013-04-06 07:53:00,60.4,57.8,30.06,NW,319,2.2,2.2,91,0.00,,---,0.00,VWS V14.01,2013-04-06 11:53:00,
2013-04-06 07:54:00,60.4,57.8,30.06,NW,319,2.2,2.2,91,0.00,,---,0.00,VWS V14.01,2013-04-06 11:54:00,
2013-04-06 07:58:00,60.4,57.5,30.06,NW,319,2.2,2.2,90,0.00,,---,0.00,VWS V14.01,2013-04-06 11:58:00,
2013-04-06 07:59:00,60.4,57.5,30.06,NW,319,2.2,2.2,90,0.00,,---,0.00,VWS V14.01,2013-04-06 11:59:00,
2013-04-06 08:03:00,60.4,57.5,30.06,NW,319,2.2,2.2,90,0.00,,---,0.00,VWS V14.01,2013-04-06 12:03:00,
2013-04-06 08:04:00,60.4,57.5,30.06,NW,319,2.2,2.2,90,0.00,,---,0.00,VWS V14.01,2013-04-06 12:04:00,
2013-04-06 08:08:00,60.6,57.7,30.06,NW,319,2.2,2.2,90,0.00,,---,0.00,VWS V14.01,2013-04-06 12:08:00,
2013-04-06 08:09:00,60.6,57.7,30.06,NW,319,2.2,2.2,90,0.00,,---,0.00,VWS V14.01,2013-04-06 12:09:00,
2013-04-06 08:13:00,60.6,57.7,30.06,WNW,301,4.0,4.0,90,0.00,,---,0.00,VWS V14.01,2013-04-06 12:13:00,
2013-04-06 08:14:00,60.8,57.5,30.06,WNW,301,4.0,4.0,89,0.00,,---,0.00,VWS V14.01,2013-04-06 12:14:00,
2013-04-06 08:15:00,60.8,57.5,30.06,WNW,301,4.0,4.0,89,0.00,,---,0.00,VWS V14.01,2013-04-06 12:15:00,
2013-04-06 08:18:00,60.8,57.5,30.06,WNW,301,4.0,4.0,89,0.00,,---,0.00,VWS V14.01,2013-04-06 12:18:00,
2013-04-06 08:19:00,60.8,57.5,30.06,NNW,336,4.9,4.9,89,0.00,,---,0.00,VWS V14.01,2013-04-06 12:19:00,
2013-04-06 08:20:00,60.8,57.5,30.06,NNW,336,4.9,4.9,89,0.00,,---,0.00,VWS V14.01,2013-04-06 12:20:00,
2013-04-06 08:23:00,60.8,57.5,30.06,NNW,336,4.9,4.9,89,0.00,,---,0.00,VWS V14.01,2013-04-06 12:23:00,
2013-04-06 08:24:00,60.8,57.5,30.06,NNW,336,4.9,4.9,89,0.00,,---,0.00,VWS V14.01,2013-04-06 12:24:00,
2013-04-06 08:25:00,60.8,57.5,30.06,NNW,336,4.9,4.9,89,0.00,,---,0.00,VWS V14.01,2013-04-06 12:25:00,
2013-04-06 08:28:00,60.8,57.5,30.06,NNW,329,4.0,4.0,89,0.00,,---,0.00,VWS V14.01,2013-04-06 12:28:00,
2013-04-06 08:30:00,60.8,57.5,30.06,NNW,329,4.0,4.0,89,0.00,,---,0.00,VWS V14.01,2013-04-06 12:30:00,
2013-04-06 08:34:00,61.2,57.3,30.06,NNW,329,4.0,4.0,87,0.00,,---,0.00,VWS V14.01,2013-04-06 12:34:00,
2013-04-06 08:35:00,61.2,57.3,30.06,NNW,329,4.0,4.0,87,0.00,,---,0.00,VWS V14.01,2013-04-06 12:35:00,
2013-04-06 08:39:00,61.2,57.3,30.06,NNW,329,4.0,4.0,87,0.00,,---,0.00,VWS V14.01,2013-04-06 12:39:00,
2013-04-06 08:40:00,61.2,57.3,30.06,NW,314,5.8,5.8,87,0.00,,---,0.00,VWS V14.01,2013-04-06 12:40:00,
2013-04-06 08:44:00,61.5,57.6,30.06,NW,314,5.8,5.8,87,0.00,,---,0.00,VWS V14.01,2013-04-06 12:44:00,
2013-04-06 08:45:00,61.7,57.5,30.06,NW,314,5.8,5.8,86,0.00,,---,0.00,VWS V14.01,2013-04-06 12:45:00,
2013-04-06 08:50:00,61.7,57.5,30.06,NNW,344,8.7,8.7,86,0.00,,---,0.00,VWS V14.01,2013-04-06 12:50:00,
2013-04-06 08:55:00,61.9,57.7,30.06,West,279,6.3,6.3,86,0.00,,---,0.00,VWS V14.01,2013-04-06 12:55:00,
2013-04-06 08:56:00,61.9,57.7,30.06,West,279,6.3,6.3,86,0.00,,---,0.00,VWS V14.01,2013-04-06 12:56:00,
2013-04-06 08:57:00,61.9,57.7,30.06,West,279,6.3,6.3,86,0.00,,---,0.00,VWS V14.01,2013-04-06 12:57:00,
2013-04-06 09:00:00,61.9,57.7,30.06,West,279,6.3,6.3,86,0.00,,---,0.00,VWS V14.01,2013-04-06 13:00:00,
2013-04-06 09:01:00,61.9,57.7,30.06,West,279,6.3,6.3,86,0.00,,---,0.00,VWS V14.01,2013-04-06 13:01:00,
2013-04-06 09:02:00,61.9,57.7,30.06,NW,321,4.9,4.9,86,0.00,,---,0.00,VWS V14.01,2013-04-06 13:02:00,
2013-04-06 09:05:00,61.9,57.7,30.06,NW,321,4.9,4.9,86,0.00,,---,0.00,VWS V14.01,2013-04-06 13:05:00,
2013-04-06 09:06:00,61.9,57.7,30.06,NW,321,4.9,4.9,86,0.00,,---,0.00,VWS V14.01,2013-04-06 13:06:00,
2013-04-06 09:07:00,61.9,57.7,30.06,NW,321,4.9,4.9,86,0.00,,---,0.00,VWS V14.01,2013-04-06 13:07:00,
2013-04-06 09:10:00,62.8,57.9,30.06,NNW,337,6.3,6.3,84,0.00,,---,0.00,VWS V14.01,2013-04-06 13:10:00,
2013-04-06 09:11:00,62.8,57.9,30.06,NNW,337,6.3,6.3,84,0.00,,---,0.00,VWS V14.01,2013-04-06 13:11:00,
2013-04-06 09:12:00,62.8,57.9,30.06,NNW,337,6.3,6.3,84,0.00,,---,0.00,VWS V14.01,2013-04-06 13:12:00,
2013-04-06 09:15:00,63.1,58.2,30.06,NW,312,2.7,6.3,84,0.00,,---,0.00,VWS V14.01,2013-04-06 13:15:00,
2013-04-06 09:16:00,63.1,58.2,30.06,NW,312,2.7,2.7,84,0.00,,---,0.00,VWS V14.01,2013-04-06 13:16:00,
2013-04-06 09:17:00,63.1,58.2,30.06,NW,312,2.7,2.7,84,0.00,,---,0.00,VWS V14.01,2013-04-06 13:17:00,
2013-04-06 09:21:00,63.3,58.4,30.06,NW,312,2.7,2.7,84,0.00,,---,0.00,VWS V14.01,2013-04-06 13:21:00,
2013-04-06 09:22:00,63.3,58.4,30.06,NNW,345,5.4,5.4,84,0.00,,---,0.00,VWS V14.01,2013-04-06 13:22:00,
2013-04-06 09:27:00,63.3,58.4,30.06,NNW,345,5.4,5.4,84,0.00,,---,0.00,VWS V14.01,2013-04-06 13:27:00,
2013-04-06 09:28:00,63.3,58.4,30.06,NNW,345,5.4,5.4,84,0.00,,---,0.00,VWS V14.01,2013-04-06 13:28:00,
2013-04-06 09:32:00,63.9,58.6,30.06,North,353,3.6,3.6,83,0.00,,---,0.00,VWS V14.01,2013-04-06 13:32:00,
2013-04-06 09:33:00,63.9,58.6,30.06,North,353,3.6,3.6,83,0.00,,---,0.00,VWS V14.01,2013-04-06 13:33:00,
2013-04-06 09:37:00,63.9,58.6,30.06,NNW,327,7.6,7.6,83,0.00,,---,0.00,VWS V14.01,2013-04-06 13:37:00,
2013-04-06 09:38:00,64.2,58.6,30.06,NNW,327,7.6,7.6,82,0.00,,---,0.00,VWS V14.01,2013-04-06 13:38:00,
2013-04-06 09:42:00,64.6,59.0,30.06,NNW,327,7.6,7.6,82,0.00,,---,0.00,VWS V14.01,2013-04-06 13:42:00,
2013-04-06 09:43:00,64.6,59.0,30.06,WNW,282,4.0,7.6,82,0.00,,---,0.00,VWS V14.01,2013-04-06 13:43:00,
2013-04-06 09:47:00,64.9,59.0,30.06,WNW,282,4.0,4.0,81,0.00,,---,0.00,VWS V14.01,2013-04-06 13:47:00,
2013-04-06 09:48:00,64.9,59.0,30.06,WNW,282,4.0,4.0,81,0.00,,---,0.00,VWS V14.01,2013-04-06 13:48:00,
2013-04-06 09:49:00,64.9,59.0,30.06,WNW,282,4.0,4.0,81,0.00,,---,0.00,VWS V14.01,2013-04-06 13:49:00,
2013-04-06 09:52:00,64.9,59.0,30.06,WNW,282,4.0,4.0,81,0.00,,---,0.00,VWS V14.01,2013-04-06 13:52:00,
2013-04-06 09:53:00,64.9,59.0,30.06,WNW,282,4.0,4.0,81,0.00,,---,0.00,VWS V14.01,2013-04-06 13:53:00,
2013-04-06 09:54:00,64.9,59.0,30.06,WNW,282,4.0,4.0,81,0.00,,---,0.00,VWS V14.01,2013-04-06 13:54:00,
2013-04-06 09:57:00,65.5,59.2,30.06,NNW,339,4.9,4.9,80,0.00,,---,0.00,VWS V14.01,2013-04-06 13:57:00,
2013-04-06 09:58:00,65.5,59.2,30.06,NNW,339,4.9,4.9,80,0.00,,---,0.00,VWS V14.01,2013-04-06 13:58:00,
2013-04-06 09:59:00,65.5,59.2,30.06,NNW,339,4.9,4.9,80,0.00,,---,0.00,VWS V14.01,2013-04-06 13:59:00,
2013-04-06 10:00:00,65.5,59.2,30.06,NNW,339,4.9,4.9,80,0.00,,---,0.00,VWS V14.01,2013-04-06 14:00:00,
2013-04-06 10:03:00,65.5,59.2,30.06,NNW,339,4.9,4.9,80,0.00,,---,0.00,VWS V14.01,2013-04-06 14:03:00,
2013-04-06 10:04:00,65.5,59.2,30.06,NW,326,4.0,4.9,80,0.00,,---,0.00,VWS V14.01,2013-04-06 14:04:00,
2013-04-06 10:05:00,65.8,59.5,30.06,NW,326,4.0,4.9,80,0.00,,---,0.00,VWS V14.01,2013-04-06 14:05:00,
2013-04-06 10:08:00,66.0,59.7,30.06,NW,326,4.0,4.0,80,0.00,,---,0.00,VWS V14.01,2013-04-06 14:08:00,
2013-04-06 10:09:00,66.0,59.7,30.06,NW,326,4.0,4.0,80,0.00,,---,0.00,VWS V14.01,2013-04-06 14:09:00,
2013-04-06 10:10:00,66.0,59.7,30.06,NW,326,4.0,4.0,80,0.00,,---,0.00,VWS V14.01,2013-04-06 14:10:00,
2013-04-06 10:13:00,66.0,59.7,30.06,NW,313,5.8,5.8,80,0.00,,---,0.00,VWS V14.01,2013-04-06 14:13:00,
2013-04-06 10:14:00,66.6,60.2,30.06,NW,313,5.8,5.8,80,0.00,,---,0.00,VWS V14.01,2013-04-06 14:14:00,
2013-04-06 10:15:00,66.6,60.2,30.06,NW,313,5.8,5.8,80,0.00,,---,0.00,VWS V14.01,2013-04-06 14:15:00,
2013-04-06 10:18:00,66.6,59.8,30.06,North,7,2.7,5.8,79,0.00,,---,0.00,VWS V14.01,2013-04-06 14:18:00,
2013-04-06 10:19:00,66.6,59.8,30.06,North,7,2.7,2.7,79,0.00,,---,0.00,VWS V14.01,2013-04-06 14:19:00,
2013-04-06 10:20:00,66.6,59.8,30.06,North,7,2.7,2.7,79,0.00,,---,0.00,VWS V14.01,2013-04-06 14:20:00,
2013-04-06 10:23:00,66.6,59.8,30.06,North,7,2.7,2.7,79,0.00,,---,0.00,VWS V14.01,2013-04-06 14:23:00,
2013-04-06 10:25:00,66.6,59.8,30.06,North,7,2.7,2.7,79,0.00,,---,0.00,VWS V14.01,2013-04-06 14:25:00,
2013-04-06 10:26:00,66.6,59.8,30.06,NNE,20,7.6,7.6,79,0.00,,---,0.00,VWS V14.01,2013-04-06 14:26:00,
2013-04-06 10:28:00,66.6,59.8,30.06,NNE,20,7.6,7.6,79,0.00,,---,0.00,VWS V14.01,2013-04-06 14:28:00,
2013-04-06 10:30:00,66.6,59.8,30.06,NNE,20,7.6,7.6,79,0.00,,---,0.00,VWS V14.01,2013-04-06 14:30:00,
2013-04-06 10:31:00,66.6,59.8,30.06,NNE,20,7.6,7.6,79,0.00,,---,0.00,VWS V14.01,2013-04-06 14:31:00,
2013-04-06 10:33:00,67.3,59.8,30.06,North,350,2.7,2.7,77,0.00,,---,0.00,VWS V14.01,2013-04-06 14:33:00,
2013-04-06 10:35:00,67.5,60.0,30.06,North,350,2.7,2.7,77,0.00,,---,0.00,VWS V14.01,2013-04-06 14:35:00,
2013-04-06 10:36:00,67.5,60.0,30.06,North,350,2.7,2.7,77,0.00,,---,0.00,VWS V14.01,2013-04-06 14:36:00,
2013-04-06 10:39:00,67.5,60.0,30.06,NW,326,4.0,4.0,77,0.00,,---,0.00,VWS V14.01,2013-04-06 14:39:00,
2013-04-06 10:40:00,67.5,60.0,30.06,NW,326,4.0,4.0,77,0.00,,---,0.00,VWS V14.01,2013-04-06 14:40:00,
2013-04-06 10:41:00,67.5,60.0,30.06,NW,326,4.0,4.0,77,0.00,,---,0.00,VWS V14.01,2013-04-06 14:41:00,
2013-04-06 10:42:00,67.8,60.3,30.06,NW,326,4.0,4.0,77,0.00,,---,0.00,VWS V14.01,2013-04-06 14:42:00,
2013-04-06 10:44:00,67.8,60.3,30.06,NW,326,4.0,4.0,77,0.00,,---,0.00,VWS V14.01,2013-04-06 14:44:00,
2013-04-06 10:46:00,67.8,60.3,30.06,NNW,338,5.8,5.8,77,0.00,,---,0.00,VWS V14.01,2013-04-06 14:46:00,
2013-04-06 10:48:00,67.8,60.3,30.09,NNW,338,5.8,5.8,77,0.00,,---,0.00,VWS V14.01,2013-04-06 14:48:00,
2013-04-06 10:50:00,68.2,60.0,30.09,NNW,338,5.8,5.8,75,0.00,,---,0.00,VWS V14.01,2013-04-06 14:50:00,
2013-04-06 10:52:00,68.2,60.0,30.09,NNW,338,5.8,5.8,75,0.00,,---,0.00,VWS V14.01,2013-04-06 14:52:00,
2013-04-06 10:53:00,68.2,60.0,30.09,NNW,338,5.8,5.8,75,0.00,,---,0.00,VWS V14.01,2013-04-06 14:53:00,
2013-04-06 10:55:00,68.2,60.0,30.09,WNW,286,3.6,3.6,75,0.00,,---,0.00,VWS V14.01,2013-04-06 14:55:00,
2013-04-06 10:57:00,68.2,60.0,30.09,WNW,286,3.6,3.6,75,0.00,,---,0.00,VWS V14.01,2013-04-06 14:57:00,
2013-04-06 10:58:00,68.2,60.0,30.09,WNW,286,3.6,3.6,75,0.00,,---,0.00,VWS V14.01,2013-04-06 14:58:00,
2013-04-06 11:00:00,68.2,60.0,30.09,NW,316,4.0,4.0,75,0.00,,---,0.00,VWS V14.01,2013-04-06 15:00:00,
2013-04-06 11:02:00,68.2,60.0,30.09,NW,316,4.0,4.0,75,0.00,,---,0.00,VWS V14.01,2013-04-06 15:02:00,
2013-04-06 11:03:00,68.2,60.0,30.09,NW,316,4.0,4.0,75,0.00,,---,0.00,VWS V14.01,2013-04-06 15:03:00,
2013-04-06 11:05:00,68.2,60.0,30.09,NW,316,4.0,4.0,75,0.00,,---,0.00,VWS V14.01,2013-04-06 15:05:00,
2013-04-06 11:07:00,68.2,60.0,30.09,NNW,338,5.8,5.8,75,0.00,,---,0.00,VWS V14.01,2013-04-06 15:07:00,
2013-04-06 11:08:00,68.2,60.0,30.09,NNW,338,5.8,5.8,75,0.00,,---,0.00,VWS V14.01,2013-04-06 15:08:00,
2013-04-06 11:10:00,69.1,60.1,30.09,NNW,338,5.8,5.8,73,0.00,,---,0.00,VWS V14.01,2013-04-06 15:10:00,
2013-04-06 11:12:00,69.1,60.1,30.09,NNW,338,5.8,5.8,73,0.00,,---,0.00,VWS V14.01,2013-04-06 15:12:00,
2013-04-06 11:13:00,69.1,60.1,30.09,NNW,338,5.8,5.8,73,0.00,,---,0.00,VWS V14.01,2013-04-06 15:13:00,
2013-04-06 11:16:00,69.1,60.1,30.09,NNW,338,5.8,5.8,73,0.00,,---,0.00,VWS V14.01,2013-04-06 15:16:00,
2013-04-06 11:17:00,69.1,60.1,30.09,NNW,338,5.8,5.8,73,0.00,,---,0.00,VWS V14.01,2013-04-06 15:17:00,
2013-04-06 11:18:00,69.1,60.1,30.09,NNW,338,5.8,5.8,73,0.00,,---,0.00,VWS V14.01,2013-04-06 15:18:00,
2013-04-06 11:21:00,69.1,60.1,30.09,NNW,338,5.8,5.8,73,0.00,,---,0.00,VWS V14.01,2013-04-06 15:21:00,
2013-04-06 11:23:00,69.1,60.1,30.09,NNW,339,6.3,6.3,73,0.00,,---,0.00,VWS V14.01,2013-04-06 15:23:00,
2013-04-06 11:24:00,69.1,60.1,30.09,NNW,339,6.3,6.3,73,0.00,,---,0.00,VWS V14.01,2013-04-06 15:24:00,
2013-04-06 11:26:00,69.1,60.1,30.09,NNW,339,6.3,6.3,73,0.00,,---,0.00,VWS V14.01,2013-04-06 15:26:00,
2013-04-06 11:28:00,69.1,60.1,30.09,NNW,339,6.3,6.3,73,0.00,,---,0.00,VWS V14.01,2013-04-06 15:28:00,
2013-04-06 11:30:00,69.1,60.1,30.09,NW,325,6.3,6.3,73,0.00,,---,0.67,VWS V14.01,2013-04-06 15:30:00,
2013-04-06 11:31:00,69.1,60.1,30.09,NW,325,6.3,6.3,73,0.00,,---,0.00,VWS V14.01,2013-04-06 15:31:00,
2013-04-06 11:33:00,69.1,60.1,30.09,NW,325,6.3,6.3,73,0.00,,---,0.00,VWS V14.01,2013-04-06 15:33:00,
2013-04-06 11:34:00,69.1,60.1,30.09,NW,325,6.3,6.3,73,0.00,,---,0.00,VWS V14.01,2013-04-06 15:34:00,
2013-04-06 11:35:00,69.1,60.1,30.09,NW,325,6.3,6.3,73,0.00,,---,0.00,VWS V14.01,2013-04-06 15:35:00,
2013-04-06 11:36:00,69.1,60.1,30.09,NW,325,6.3,6.3,73,0.00,,---,0.00,VWS V14.01,2013-04-06 15:36:00,
2013-04-06 11:38:00,69.1,60.1,30.09,NW,325,6.3,6.3,73,0.00,,---,0.00,VWS V14.01,2013-04-06 15:38:00,
2013-04-06 11:39:00,69.1,60.1,30.09,NW,325,6.3,6.3,73,0.00,,---,0.00,VWS V14.01,2013-04-06 15:39:00,
2013-04-06 11:40:00,69.1,60.1,30.09,NW,325,6.3,6.3,73,0.00,,---,0.00,VWS V14.01,2013-04-06 15:40:00,
2013-04-06 11:41:00,69.1,60.1,30.09,NW,325,6.3,6.3,73,0.00,,---,0.00,VWS V14.01,2013-04-06 15:41:00,
2013-04-06 11:43:00,69.1,60.1,30.09,WNW,295,4.9,4.9,73,0.00,,---,0.00,VWS V14.01,2013-04-06 15:43:00,
2013-04-06 11:44:00,69.1,60.1,30.09,WNW,295,4.9,4.9,73,0.00,,---,0.00,VWS V14.01,2013-04-06 15:44:00,
2013-04-06 11:45:00,69.1,60.1,30.09,WNW,295,4.9,4.9,73,0.00,,---,0.00,VWS V14.01,2013-04-06 15:45:00,
2013-04-06 11:47:00,69.1,60.1,30.09,WNW,295,4.9,4.9,73,0.00,,---,0.00,VWS V14.01,2013-04-06 15:47:00,
2013-04-06 11:48:00,69.1,60.1,30.09,WNW,295,4.9,4.9,73,0.00,,---,0.00,VWS V14.01,2013-04-06 15:48:00,
2013-04-06 11:50:00,69.1,60.1,30.09,North,350,3.6,3.6,73,0.00,,---,0.00,VWS V14.01,2013-04-06 15:50:00,
2013-04-06 11:52:00,69.1,60.1,30.09,North,350,3.6,3.6,73,0.00,,---,0.00,VWS V14.01,2013-04-06 15:52:00,
2013-04-06 11:53:00,72.0,61.7,30.09,North,350,3.6,3.6,70,0.00,,---,0.00,VWS V14.01,2013-04-06 15:53:00,
2013-04-06 11:55:00,72.0,61.7,30.09,North,350,3.6,3.6,70,0.00,,---,0.00,VWS V14.01,2013-04-06 15:55:00,
2013-04-06 11:57:00,72.0,61.7,30.09,NNW,340,7.2,7.2,70,0.00,,---,0.00,VWS V14.01,2013-04-06 15:57:00,
2013-04-06 12:00:00,72.0,61.7,30.09,NNW,340,7.2,7.2,70,0.00,,---,0.00,VWS V14.01,2013-04-06 16:00:00,
2013-04-06 12:01:00,72.0,61.7,30.09,NNW,340,7.2,7.2,70,0.00,,---,0.00,VWS V14.01,2013-04-06 16:01:00,
2013-04-06 12:02:00,72.0,61.7,30.09,NNW,340,7.2,7.2,70,0.00,,---,0.00,VWS V14.01,2013-04-06 16:02:00,
2013-04-06 12:05:00,72.0,61.7,30.09,NNW,343,4.0,4.0,70,0.00,,---,0.00,VWS V14.01,2013-04-06 16:05:00,
2013-04-06 12:06:00,72.0,61.7,30.09,NNW,343,4.0,4.0,70,0.00,,---,0.00,VWS V14.01,2013-04-06 16:06:00,
2013-04-06 12:08:00,72.0,61.7,30.09,NNW,343,4.0,4.0,70,0.00,,---,0.00,VWS V14.01,2013-04-06 16:08:00,
2013-04-06 12:10:00,72.0,61.7,30.09,North,350,4.0,4.0,70,0.00,,---,0.00,VWS V14.01,2013-04-06 16:10:00,
2013-04-06 12:11:00,72.0,61.7,30.09,North,350,4.0,4.0,70,0.00,,---,0.00,VWS V14.01,2013-04-06 16:11:00,
2013-04-06 12:13:00,72.0,61.7,30.09,North,350,4.0,4.0,70,0.00,,---,0.00,VWS V14.01,2013-04-06 16:13:00,
2013-04-06 12:15:00,72.0,61.7,30.09,North,350,4.0,4.0,70,0.00,,---,0.00,VWS V14.01,2013-04-06 16:15:00,
2013-04-06 12:16:00,72.0,61.7,30.09,North,350,4.0,4.0,70,0.00,,---,0.00,VWS V14.01,2013-04-06 16:16:00,
2013-04-06 12:17:00,72.0,61.7,30.09,NNW,332,6.3,6.3,70,0.00,,---,0.00,VWS V14.01,2013-04-06 16:17:00,
2013-04-06 12:20:00,73.2,61.2,30.09,NNW,332,6.3,6.3,66,0.00,,---,0.00,VWS V14.01,2013-04-06 16:20:00,
2013-04-06 12:21:00,73.2,61.2,30.09,NNW,332,6.3,6.3,66,0.00,,---,0.00,VWS V14.01,2013-04-06 16:21:00,
2013-04-06 12:22:00,73.2,61.2,30.09,NNW,332,6.3,6.3,66,0.00,,---,0.67,VWS V14.01,2013-04-06 16:22:00,
2013-04-06 12:25:00,73.2,61.2,30.09,WNW,303,3.1,3.1,66,0.00,,---,0.00,VWS V14.01,2013-04-06 16:25:00,
2013-04-06 12:26:00,73.2,61.2,30.09,WNW,303,3.1,3.1,66,0.00,,---,0.00,VWS V14.01,2013-04-06 16:26:00,
2013-04-06 12:27:00,73.2,61.2,30.09,WNW,303,3.1,3.1,66,0.00,,---,0.00,VWS V14.01,2013-04-06 16:27:00,
2013-04-06 12:30:00,73.2,61.2,30.09,WNW,303,3.1,3.1,66,0.00,,---,0.00,VWS V14.01,2013-04-06 16:30:00,
2013-04-06 12:32:00,73.2,61.2,30.09,NNW,334,4.0,4.0,66,0.00,,---,0.00,VWS V14.01,2013-04-06 16:32:00,
2013-04-06 12:35:00,73.6,61.5,30.06,NNW,334,4.0,4.0,66,0.00,,---,0.00,VWS V14.01,2013-04-06 16:35:00,
2013-04-06 12:37:00,73.6,61.5,30.06,NNW,334,4.0,4.0,66,0.00,,---,0.00,VWS V14.01,2013-04-06 16:37:00,
2013-04-06 12:38:00,73.6,61.5,30.06,North,0,5.4,5.4,66,0.00,,---,0.00,VWS V14.01,2013-04-06 16:38:00,
2013-04-06 12:41:00,73.6,61.5,30.06,North,0,5.4,5.4,66,0.00,,---,0.00,VWS V14.01,2013-04-06 16:41:00,
2013-04-06 12:42:00,73.6,61.5,30.06,North,0,5.4,5.4,66,0.00,,---,0.00,VWS V14.01,2013-04-06 16:42:00,
2013-04-06 12:43:00,73.6,61.5,30.06,North,0,5.4,5.4,66,0.00,,---,0.00,VWS V14.01,2013-04-06 16:43:00,
2013-04-06 12:46:00,73.6,61.5,30.06,North,357,3.6,3.6,66,0.00,,---,0.00,VWS V14.01,2013-04-06 16:46:00,
2013-04-06 12:47:00,73.6,61.5,30.06,North,357,3.6,3.6,66,0.00,,---,0.00,VWS V14.01,2013-04-06 16:47:00,
2013-04-06 12:48:00,73.6,61.5,30.06,North,357,3.6,3.6,66,0.00,,---,0.00,VWS V14.01,2013-04-06 16:48:00,
2013-04-06 12:51:00,73.6,61.5,30.09,North,357,3.6,3.6,66,0.00,,---,0.00,VWS V14.01,2013-04-06 16:51:00,
2013-04-06 12:52:00,73.6,61.5,30.09,North,357,3.6,3.6,66,0.00,,---,0.00,VWS V14.01,2013-04-06 16:52:00,
2013-04-06 12:53:00,73.6,61.5,30.09,WNW,302,3.1,3.1,66,0.00,,---,0.00,VWS V14.01,2013-04-06 16:53:00,
2013-04-06 12:56:00,73.6,61.5,30.09,WNW,302,3.1,3.1,66,0.00,,---,0.00,VWS V14.01,2013-04-06 16:56:00,
2013-04-06 12:58:00,74.7,62.6,30.09,WNW,302,3.1,3.1,66,0.00,,---,0.00,VWS V14.01,2013-04-06 16:58:00,
2013-04-06 12:59:00,74.7,62.6,30.09,North,357,2.2,3.1,66,0.00,,---,0.00,VWS V14.01,2013-04-06 16:59:00,
2013-04-06 13:01:00,74.7,62.6,30.09,North,357,2.2,2.2,66,0.00,,---,0.00,VWS V14.01,2013-04-06 17:01:00,
2013-04-06 13:03:00,74.7,62.6,30.09,North,357,2.2,2.2,66,0.00,,---,0.00,VWS V14.01,2013-04-06 17:03:00,
2013-04-06 13:04:00,74.7,62.6,30.09,North,357,2.2,2.2,66,0.00,,---,0.00,VWS V14.01,2013-04-06 17:04:00,
2013-04-06 13:07:00,74.7,62.6,30.09,North,353,7.2,7.2,66,0.00,,---,0.00,VWS V14.01,2013-04-06 17:07:00,
2013-04-06 13:08:00,74.7,62.6,30.09,North,353,7.2,7.2,66,0.00,,---,0.00,VWS V14.01,2013-04-06 17:08:00,
2013-04-06 13:09:00,74.7,62.6,30.09,North,353,7.2,7.2,66,0.00,,---,0.00,VWS V14.01,2013-04-06 17:09:00,
2013-04-06 13:12:00,74.1,61.6,30.09,North,353,7.2,7.2,65,0.00,,---,0.00,VWS V14.01,2013-04-06 17:12:00,
2013-04-06 13:13:00,74.1,61.6,30.09,WNW,303,5.8,7.2,65,0.00,,---,0.00,VWS V14.01,2013-04-06 17:13:00,
2013-04-06 13:15:00,74.1,61.6,30.09,WNW,303,5.8,5.8,65,0.00,,---,0.00,VWS V14.01,2013-04-06 17:15:00,
2013-04-06 13:18:00,74.1,61.6,30.06,WNW,303,5.8,5.8,65,0.00,,---,0.00,VWS V14.01,2013-04-06 17:18:00,
2013-04-06 13:20:00,74.1,61.6,30.06,WNW,303,5.8,5.8,65,0.00,,---,0.00,VWS V14.01,2013-04-06 17:20:00,
2013-04-06 13:23:00,74.1,61.6,30.06,WNW,303,5.8,5.8,65,0.00,,---,0.00,VWS V14.01,2013-04-06 17:23:00,
2013-04-06 13:25:00,74.1,61.6,30.06,WNW,303,5.8,5.8,65,0.00,,---,0.00,VWS V14.01,2013-04-06 17:25:00,
2013-04-06 13:28:00,74.1,61.6,30.06,WNW,303,5.8,5.8,65,0.00,,---,0.00,VWS V14.01,2013-04-06 17:28:00,
2013-04-06 13:30:00,74.1,61.6,30.06,WNW,303,5.8,5.8,65,0.00,,---,0.00,VWS V14.01,2013-04-06 17:30:00,
2013-04-06 13:33:00,74.1,61.6,30.06,WNW,303,5.8,5.8,65,0.00,,---,0.00,VWS V14.01,2013-04-06 17:33:00,
2013-04-06 13:34:00,74.1,61.6,30.06,WNW,303,5.8,5.8,65,0.00,,---,0.00,VWS V14.01,2013-04-06 17:34:00,
2013-04-06 13:35:00,74.1,61.6,30.06,WNW,303,5.8,5.8,65,0.00,,---,0.00,VWS V14.01,2013-04-06 17:35:00,
2013-04-06 13:38:00,74.1,61.6,30.06,WNW,303,5.8,5.8,65,0.00,,---,0.00,VWS V14.01,2013-04-06 17:38:00,
2013-04-06 13:39:00,74.1,61.6,30.06,WNW,303,5.8,5.8,65,0.00,,---,0.00,VWS V14.01,2013-04-06 17:39:00,
2013-04-06 13:40:00,74.1,61.6,30.06,WNW,303,5.8,5.8,65,0.00,,---,0.00,VWS V14.01,2013-04-06 17:40:00,
2013-04-06 13:44:00,74.1,61.6,30.06,WNW,303,5.8,5.8,65,0.00,,---,0.00,VWS V14.01,2013-04-06 17:44:00,
2013-04-06 13:45:00,74.1,61.6,30.06,WNW,303,5.8,5.8,65,0.00,,---,0.00,VWS V14.01,2013-04-06 17:45:00,
2013-04-06 13:49:00,74.1,61.6,30.06,WNW,303,5.8,5.8,65,0.00,,---,0.00,VWS V14.01,2013-04-06 17:49:00,
2013-04-06 13:50:00,74.1,61.6,30.06,WNW,303,5.8,5.8,65,0.00,,---,0.00,VWS V14.01,2013-04-06 17:50:00,
2013-04-06 13:54:00,74.1,61.6,30.06,WNW,303,5.8,5.8,65,0.00,,---,0.00,VWS V14.01,2013-04-06 17:54:00,
2013-04-06 13:55:00,74.1,61.6,30.06,WNW,303,5.8,5.8,65,0.00,,---,0.00,VWS V14.01,2013-04-06 17:55:00,
2013-04-06 14:00:00,74.1,61.6,30.06,WNW,303,5.8,5.8,65,0.00,,---,0.00,VWS V14.01,2013-04-06 18:00:00,
2013-04-06 14:05:00,74.1,61.6,30.06,WNW,303,5.8,5.8,65,0.00,,---,0.00,VWS V14.01,2013-04-06 18:05:00,
2013-04-06 14:06:00,74.1,61.6,30.06,WNW,303,5.8,5.8,65,0.00,,---,0.00,VWS V14.01,2013-04-06 18:06:00,
2013-04-06 14:10:00,74.1,61.6,30.06,WNW,303,5.8,5.8,65,0.00,,---,0.00,VWS V14.01,2013-04-06 18:10:00,
2013-04-06 14:11:00,74.1,61.6,30.06,WNW,303,5.8,5.8,65,0.00,,---,0.00,VWS V14.01,2013-04-06 18:11:00,
2013-04-06 14:15:00,74.1,61.6,30.06,WNW,303,5.8,5.8,65,0.00,,---,0.00,VWS V14.01,2013-04-06 18:15:00,
2013-04-06 14:16:00,74.1,61.6,30.06,WNW,303,5.8,5.8,65,0.00,,---,0.00,VWS V14.01,2013-04-06 18:16:00,
2013-04-06 14:20:00,74.1,61.6,30.06,WNW,303,5.8,5.8,65,0.00,,---,0.00,VWS V14.01,2013-04-06 18:20:00,
2013-04-06 14:21:00,74.1,61.6,30.06,WNW,303,5.8,5.8,65,0.00,,---,0.00,VWS V14.01,2013-04-06 18:21:00,
2013-04-06 14:22:00,74.1,61.6,30.06,WNW,303,5.8,5.8,65,0.00,,---,0.00,VWS V14.01,2013-04-06 18:22:00,
2013-04-06 14:25:00,74.1,61.6,30.06,WNW,303,5.8,5.8,65,0.00,,---,0.00,VWS V14.01,2013-04-06 18:25:00,
2013-04-06 14:26:00,74.1,61.6,30.06,WNW,303,5.8,5.8,65,0.00,,---,0.00,VWS V14.01,2013-04-06 18:26:00,
2013-04-06 14:27:00,74.1,61.6,30.06,WNW,303,5.8,5.8,65,0.00,,---,0.00,VWS V14.01,2013-04-06 18:27:00,
2013-04-06 14:31:00,74.1,61.6,30.06,WNW,303,5.8,5.8,65,0.00,,---,0.00,VWS V14.01,2013-04-06 18:31:00,
2013-04-06 14:32:00,74.1,61.6,30.06,WNW,303,5.8,5.8,65,0.00,,---,0.00,VWS V14.01,2013-04-06 18:32:00,
2013-04-06 14:36:00,74.1,61.6,30.06,WNW,303,5.8,5.8,65,0.00,,---,0.00,VWS V14.01,2013-04-06 18:36:00,
2013-04-06 14:37:00,74.1,61.6,30.06,WNW,303,5.8,5.8,65,0.00,,---,0.00,VWS V14.01,2013-04-06 18:37:00,
2013-04-06 14:41:00,74.1,61.6,30.06,WNW,303,5.8,5.8,65,0.00,,---,0.00,VWS V14.01,2013-04-06 18:41:00,
2013-04-06 14:42:00,74.1,61.6,30.06,WNW,303,5.8,5.8,65,0.00,,---,0.00,VWS V14.01,2013-04-06 18:42:00,
2013-04-06 14:43:00,74.1,61.6,30.06,WNW,303,5.8,5.8,65,0.00,,---,0.00,VWS V14.01,2013-04-06 18:43:00,
2013-04-06 14:47:00,74.1,61.6,30.06,WNW,303,5.8,5.8,65,0.00,,---,0.00,VWS V14.01,2013-04-06 18:47:00,
2013-04-06 14:48:00,74.1,61.6,30.06,WNW,303,5.8,5.8,65,0.00,,---,0.00,VWS V14.01,2013-04-06 18:48:00,
2013-04-06 14:52:00,74.1,61.6,30.06,WNW,303,5.8,5.8,65,0.00,,---,0.00,VWS V14.01,2013-04-06 18:52:00,
2013-04-06 14:53:00,74.1,61.6,30.06,WNW,303,5.8,5.8,65,0.00,,---,0.00,VWS V14.01,2013-04-06 18:53:00,
2013-04-06 14:57:00,75.2,62.6,30.06,WNW,303,5.8,5.8,65,0.00,,---,0.00,VWS V14.01,2013-04-06 18:57:00,
2013-04-06 14:58:00,75.2,62.6,30.06,WNW,303,5.8,5.8,65,0.00,,---,0.00,VWS V14.01,2013-04-06 18:58:00,
2013-04-06 15:02:00,75.2,62.6,30.06,NNW,341,8.7,8.7,65,0.00,,---,0.00,VWS V14.01,2013-04-06 19:02:00,
2013-04-06 15:03:00,75.2,62.6,30.06,NNW,341,8.7,8.7,65,0.00,,---,0.00,VWS V14.01,2013-04-06 19:03:00,
2013-04-06 15:04:00,75.2,62.6,30.06,NNW,341,8.7,8.7,65,0.00,,---,0.00,VWS V14.01,2013-04-06 19:04:00,
2013-04-06 15:08:00,75.2,62.6,30.06,NNW,341,8.7,8.7,65,0.00,,---,0.00,VWS V14.01,2013-04-06 19:08:00,
2013-04-06 15:09:00,75.2,62.6,30.06,NNW,341,8.7,8.7,65,0.00,,---,0.00,VWS V14.01,2013-04-06 19:09:00,
2013-04-06 15:13:00,75.2,62.6,30.06,NNW,341,8.7,8.7,65,0.00,,---,0.00,VWS V14.01,2013-04-06 19:13:00,
2013-04-06 15:14:00,75.2,62.6,30.06,NNW,341,8.7,8.7,65,0.00,,---,0.00,VWS V14.01,2013-04-06 19:14:00,
2013-04-06 15:18:00,75.2,62.6,30.06,NNW,341,8.7,8.7,65,0.00,,---,0.00,VWS V14.01,2013-04-06 19:18:00,
2013-04-06 15:19:00,75.2,62.6,30.06,NNW,341,8.7,8.7,65,0.00,,---,0.00,VWS V14.01,2013-04-06 19:19:00,
2013-04-06 15:21:00,75.2,62.6,30.06,NNW,341,8.7,8.7,65,0.00,,---,0.00,VWS V14.01,2013-04-06 19:21:00,
2013-04-06 15:23:00,75.2,62.6,30.06,NNW,341,8.7,8.7,65,0.00,,---,0.00,VWS V14.01,2013-04-06 19:23:00,
2013-04-06 15:24:00,75.2,62.6,30.06,NNW,341,8.7,8.7,65,0.00,,---,0.00,VWS V14.01,2013-04-06 19:24:00,
2013-04-06 15:27:00,75.2,62.6,30.06,NNW,341,8.7,8.7,65,0.00,,---,0.00,VWS V14.01,2013-04-06 19:27:00,
2013-04-06 15:28:00,75.2,62.6,30.06,NNW,341,8.7,8.7,65,0.00,,---,0.00,VWS V14.01,2013-04-06 19:28:00,
2013-04-06 15:29:00,75.2,62.6,30.06,NNW,341,8.7,8.7,65,0.00,,---,0.00,VWS V14.01,2013-04-06 19:29:00,
2013-04-06 15:32:00,75.2,62.6,30.06,NNW,341,8.7,8.7,65,0.00,,---,0.00,VWS V14.01,2013-04-06 19:32:00,
2013-04-06 15:33:00,75.2,62.6,30.06,NNW,341,8.7,8.7,65,0.00,,---,0.00,VWS V14.01,2013-04-06 19:33:00,
2013-04-06 15:34:00,75.2,62.6,30.06,NNW,341,8.7,8.7,65,0.00,,---,0.00,VWS V14.01,2013-04-06 19:34:00,
2013-04-06 15:35:00,75.2,62.6,30.06,NNW,341,8.7,8.7,65,0.00,,---,0.00,VWS V14.01,2013-04-06 19:35:00,
2013-04-06 15:37:00,75.2,62.6,30.06,NNW,341,8.7,8.7,65,0.00,,---,0.00,VWS V14.01,2013-04-06 19:37:00,
2013-04-06 15:38:00,75.2,62.6,30.06,NNW,341,8.7,8.7,65,0.00,,---,0.00,VWS V14.01,2013-04-06 19:38:00,
2013-04-06 15:39:00,75.2,62.6,30.06,NNW,341,8.7,8.7,65,0.00,,---,0.00,VWS V14.01,2013-04-06 19:39:00,
2013-04-06 15:40:00,75.2,62.6,30.06,NNW,341,8.7,8.7,65,0.00,,---,0.00,VWS V14.01,2013-04-06 19:40:00,
2013-04-06 15:42:00,75.2,62.6,30.06,NNW,341,8.7,8.7,65,0.00,,---,0.00,VWS V14.01,2013-04-06 19:42:00,
2013-04-06 15:43:00,78.1,60.1,30.06,NNW,341,8.7,8.7,54,0.00,,---,0.00,VWS V14.01,2013-04-06 19:43:00,
2013-04-06 15:45:00,78.1,60.1,30.06,NNW,341,8.7,8.7,54,0.00,,---,0.00,VWS V14.01,2013-04-06 19:45:00,
2013-04-06 15:47:00,78.1,60.1,30.06,NNW,341,8.7,8.7,54,0.00,,---,0.00,VWS V14.01,2013-04-06 19:47:00,
2013-04-06 15:48:00,78.1,60.1,30.06,NNW,341,8.7,8.7,54,0.00,,---,0.00,VWS V14.01,2013-04-06 19:48:00,
2013-04-06 15:50:00,78.1,60.1,30.06,NNW,341,8.7,8.7,54,0.00,,---,0.00,VWS V14.01,2013-04-06 19:50:00,
2013-04-06 15:53:00,78.1,60.1,30.06,NNW,341,8.7,8.7,54,0.00,,---,0.00,VWS V14.01,2013-04-06 19:53:00,
2013-04-06 15:54:00,78.1,60.1,30.06,NNW,341,8.7,8.7,54,0.00,,---,0.00,VWS V14.01,2013-04-06 19:54:00,
2013-04-06 15:55:00,78.1,60.1,30.06,NNW,341,8.7,8.7,54,0.00,,---,0.00,VWS V14.01,2013-04-06 19:55:00,
2013-04-06 15:59:00,78.1,60.1,30.06,NNW,341,8.7,8.7,54,0.00,,---,0.00,VWS V14.01,2013-04-06 19:59:00,
2013-04-06 16:00:00,78.1,60.1,30.06,NNW,341,8.7,8.7,54,0.00,,---,0.00,VWS V14.01,2013-04-06 20:00:00,
2013-04-06 16:04:00,78.1,60.1,30.06,NNW,341,8.7,8.7,54,0.00,,---,0.00,VWS V14.01,2013-04-06 20:04:00,
2013-04-06 16:05:00,78.1,60.1,30.06,NNW,341,8.7,8.7,54,0.00,,---,0.00,VWS V14.01,2013-04-06 20:05:00,
2013-04-06 16:09:00,78.1,60.1,30.06,NNW,341,8.7,8.7,54,0.00,,---,0.00,VWS V14.01,2013-04-06 20:09:00,
2013-04-06 16:10:00,78.1,60.1,30.06,NNW,341,8.7,8.7,54,0.00,,---,0.00,VWS V14.01,2013-04-06 20:10:00,
2013-04-06 16:15:00,78.1,60.1,30.06,NNW,341,8.7,8.7,54,0.00,,---,0.00,VWS V14.01,2013-04-06 20:15:00,
2013-04-06 16:20:00,78.1,60.1,30.06,NNW,341,8.7,8.7,54,0.00,,---,0.00,VWS V14.01,2013-04-06 20:20:00,
2013-04-06 16:25:00,78.1,60.1,30.06,NNW,341,8.7,8.7,54,0.00,,---,0.00,VWS V14.01,2013-04-06 20:25:00,
2013-04-06 16:30:00,78.1,60.1,30.06,NNW,341,8.7,8.7,54,0.00,,---,0.00,VWS V14.01,2013-04-06 20:30:00,
2013-04-06 16:31:00,78.1,60.1,30.06,NNW,341,8.7,8.7,54,0.00,,---,0.00,VWS V14.01,2013-04-06 20:31:00,
2013-04-06 16:35:00,78.3,58.7,30.06,NNW,341,8.7,8.7,51,0.00,,---,0.00,VWS V14.01,2013-04-06 20:35:00,
2013-04-06 16:36:00,78.3,58.7,30.06,NNW,341,8.7,8.7,51,0.00,,---,0.00,VWS V14.01,2013-04-06 20:36:00,
2013-04-06 16:40:00,78.3,58.7,30.06,NNW,341,8.7,8.7,51,0.00,,---,0.00,VWS V14.01,2013-04-06 20:40:00,
2013-04-06 16:41:00,78.3,58.7,30.06,NNW,341,8.7,8.7,51,0.00,,---,0.00,VWS V14.01,2013-04-06 20:41:00,
2013-04-06 16:45:00,78.3,58.7,30.06,NNW,341,8.7,8.7,51,0.00,,---,0.00,VWS V14.01,2013-04-06 20:45:00,
2013-04-06 16:46:00,78.3,58.7,30.06,NNW,341,8.7,8.7,51,0.00,,---,0.00,VWS V14.01,2013-04-06 20:46:00,
2013-04-06 16:47:00,78.3,58.7,30.06,NNW,341,8.7,8.7,51,0.00,,---,0.00,VWS V14.01,2013-04-06 20:47:00,
2013-04-06 16:50:00,78.3,58.7,30.06,NNW,341,8.7,8.7,51,0.00,,---,0.00,VWS V14.01,2013-04-06 20:50:00,
2013-04-06 16:51:00,78.3,58.7,30.06,NNW,341,8.7,8.7,51,0.00,,---,0.00,VWS V14.01,2013-04-06 20:51:00,
2013-04-06 16:52:00,78.3,58.7,30.06,NNW,341,8.7,8.7,51,0.00,,---,0.00,VWS V14.01,2013-04-06 20:52:00,
2013-04-06 16:53:00,78.3,58.7,30.06,NNW,341,8.7,8.7,51,0.00,,---,0.00,VWS V14.01,2013-04-06 20:53:00,
2013-04-06 16:55:00,78.3,58.7,30.06,NNW,341,8.7,8.7,51,0.00,,---,0.00,VWS V14.01,2013-04-06 20:55:00,
2013-04-06 16:56:00,78.3,58.7,30.06,NNW,341,8.7,8.7,51,0.00,,---,0.00,VWS V14.01,2013-04-06 20:56:00,
2013-04-06 16:57:00,78.6,57.9,30.06,NNW,341,8.7,8.7,49,0.00,,---,0.00,VWS V14.01,2013-04-06 20:57:00,
2013-04-06 16:58:00,78.6,57.9,30.06,NNW,341,8.7,8.7,49,0.00,,---,0.00,VWS V14.01,2013-04-06 20:58:00,
2013-04-06 17:00:00,78.6,57.9,30.06,NNW,341,8.7,8.7,49,0.00,,---,0.67,VWS V14.01,2013-04-06 21:00:00,
2013-04-06 17:01:00,78.6,57.9,30.06,NNW,341,8.7,8.7,49,0.00,,---,0.00,VWS V14.01,2013-04-06 21:01:00,
2013-04-06 17:02:00,78.6,57.9,30.06,NNW,341,8.7,8.7,49,0.00,,---,0.00,VWS V14.01,2013-04-06 21:02:00,
2013-04-06 17:03:00,78.6,57.9,30.06,NNW,341,8.7,8.7,49,0.00,,---,0.00,VWS V14.01,2013-04-06 21:03:00,
2013-04-06 17:05:00,78.6,57.9,30.06,NNW,341,8.7,8.7,49,0.00,,---,0.00,VWS V14.01,2013-04-06 21:05:00,
2013-04-06 17:06:00,78.6,57.9,30.06,NNW,341,8.7,8.7,49,0.00,,---,0.00,VWS V14.01,2013-04-06 21:06:00,
2013-04-06 17:07:00,78.6,57.9,30.06,NNW,341,8.7,8.7,49,0.00,,---,0.00,VWS V14.01,2013-04-06 21:07:00,
2013-04-06 17:08:00,78.6,57.9,30.06,NNW,341,8.7,8.7,49,0.00,,---,0.00,VWS V14.01,2013-04-06 21:08:00,
2013-04-06 17:11:00,78.6,57.9,30.06,NNW,341,8.7,8.7,49,0.00,,---,0.00,VWS V14.01,2013-04-06 21:11:00,
2013-04-06 17:13:00,78.6,57.9,30.06,NNW,341,8.7,8.7,49,0.00,,---,0.00,VWS V14.01,2013-04-06 21:13:00,
2013-04-06 17:16:00,78.6,57.9,30.06,NNW,341,8.7,8.7,49,0.00,,---,0.00,VWS V14.01,2013-04-06 21:16:00,
2013-04-06 17:18:00,78.6,57.9,30.06,NNW,341,8.7,8.7,49,0.00,,---,0.00,VWS V14.01,2013-04-06 21:18:00,
2013-04-06 17:21:00,77.5,56.9,30.06,NNW,341,8.7,8.7,49,0.00,,---,0.00,VWS V14.01,2013-04-06 21:21:00,
2013-04-06 17:23:00,77.5,56.9,30.06,NNW,341,8.7,8.7,49,0.00,,---,0.00,VWS V14.01,2013-04-06 21:23:00,
2013-04-06 17:26:00,77.5,56.9,30.06,NNW,341,8.7,8.7,49,0.00,,---,0.00,VWS V14.01,2013-04-06 21:26:00,
2013-04-06 17:27:00,77.5,56.9,30.06,NNW,341,8.7,8.7,49,0.00,,---,0.00,VWS V14.01,2013-04-06 21:27:00,
2013-04-06 17:28:00,77.5,56.9,30.06,NNW,341,8.7,8.7,49,0.00,,---,0.00,VWS V14.01,2013-04-06 21:28:00,
2013-04-06 17:29:00,77.5,56.9,30.06,NNW,341,8.7,8.7,49,0.00,,---,0.00,VWS V14.01,2013-04-06 21:29:00,
2013-04-06 17:31:00,77.5,56.9,30.06,NNW,341,8.7,8.7,49,0.00,,---,0.00,VWS V14.01,2013-04-06 21:31:00,
2013-04-06 17:32:00,77.5,56.9,30.06,NNW,341,8.7,8.7,49,0.00,,---,0.00,VWS V14.01,2013-04-06 21:32:00,
2013-04-06 17:33:00,77.5,56.9,30.06,NNW,341,8.7,8.7,49,0.00,,---,0.00,VWS V14.01,2013-04-06 21:33:00,
2013-04-06 17:34:00,77.5,56.9,30.06,NNW,341,8.7,8.7,49,0.00,,---,0.00,VWS V14.01,2013-04-06 21:34:00,
2013-04-06 17:37:00,77.5,56.9,30.06,NNW,341,8.7,8.7,49,0.00,,---,0.00,VWS V14.01,2013-04-06 21:37:00,
2013-04-06 17:38:00,77.5,56.9,30.06,NNW,341,8.7,8.7,49,0.00,,---,0.00,VWS V14.01,2013-04-06 21:38:00,
2013-04-06 17:40:00,77.5,56.9,30.06,NNW,341,8.7,8.7,49,0.00,,---,0.00,VWS V14.01,2013-04-06 21:40:00,
2013-04-06 17:42:00,77.5,56.9,30.06,NNW,341,8.7,8.7,49,0.00,,---,0.00,VWS V14.01,2013-04-06 21:42:00,
2013-04-06 17:43:00,77.5,56.9,30.06,NNW,341,8.7,8.7,49,0.00,,---,0.00,VWS V14.01,2013-04-06 21:43:00,
2013-04-06 17:45:00,77.5,56.9,30.06,NNW,341,8.7,8.7,49,0.00,,---,0.00,VWS V14.01,2013-04-06 21:45:00,
2013-04-06 17:47:00,78.3,57.0,30.06,NNW,341,8.7,8.7,48,0.00,,---,0.00,VWS V14.01,2013-04-06 21:47:00,
2013-04-06 17:48:00,78.3,57.0,30.06,NNW,341,8.7,8.7,48,0.00,,---,0.00,VWS V14.01,2013-04-06 21:48:00,
2013-04-06 17:50:00,78.3,57.0,30.06,NNW,341,8.7,8.7,48,0.00,,---,0.00,VWS V14.01,2013-04-06 21:50:00,
2013-04-06 17:52:00,78.3,57.0,30.06,NNW,341,8.7,8.7,48,0.00,,---,0.00,VWS V14.01,2013-04-06 21:52:00,
2013-04-06 17:53:00,78.3,57.0,30.06,NNW,341,8.7,8.7,48,0.00,,---,0.00,VWS V14.01,2013-04-06 21:53:00,
2013-04-06 17:55:00,78.3,57.0,30.06,NNW,341,8.7,8.7,48,0.00,,---,0.00,VWS V14.01,2013-04-06 21:55:00,
2013-04-06 17:57:00,78.3,57.0,30.06,NNW,341,8.7,8.7,48,0.00,,---,0.00,VWS V14.01,2013-04-06 21:57:00,
2013-04-06 17:58:00,78.3,57.0,30.06,NNW,341,8.7,8.7,48,0.00,,---,0.00,VWS V14.01,2013-04-06 21:58:00,
2013-04-06 17:59:00,78.3,57.0,30.06,NNW,341,8.7,8.7,48,0.00,,---,0.00,VWS V14.01,2013-04-06 21:59:00,
2013-04-06 18:01:00,78.3,57.0,30.06,NNW,341,8.7,8.7,48,0.00,,---,0.00,VWS V14.01,2013-04-06 22:01:00,
2013-04-06 18:02:00,78.3,57.0,30.06,NNW,341,8.7,8.7,48,0.00,,---,0.00,VWS V14.01,2013-04-06 22:02:00,
2013-04-06 19:47:00,73.0,56.4,30.09,NW,310,3.6,3.6,56,0.00,,---,0.00,VWS V14.01,2013-04-06 23:47:00,
2013-04-06 19:48:00,73.0,56.4,30.09,NNW,340,2.2,2.2,56,0.00,,---,0.00,VWS V14.01,2013-04-06 23:48:00,
2013-04-06 19:52:00,72.9,56.3,30.09,NNE,26,5.8,6.3,56,0.00,,---,0.00,VWS V14.01,2013-04-06 23:52:00,
2013-04-06 19:53:00,72.9,56.3,30.09,NNE,14,3.1,3.1,56,0.00,,---,0.00,VWS V14.01,2013-04-06 23:53:00,
2013-04-06 19:57:00,72.7,56.1,30.09,North,357,2.2,2.2,56,0.00,,---,0.00,VWS V14.01,2013-04-06 23:57:00,
2013-04-06 19:58:00,72.7,56.1,30.09,NNE,16,0.0,0.0,56,0.00,,---,0.00,VWS V14.01,2013-04-06 23:58:00,
2013-04-06 20:02:00,72.5,55.9,30.09,WNW,295,3.1,3.1,56,0.00,,---,0.00,VWS V14.01,2013-04-07 00:02:00,
2013-04-06 20:03:00,72.5,55.9,30.09,NNE,15,2.7,3.6,56,0.00,,---,0.00,VWS V14.01,2013-04-07 00:03:00,
2013-04-06 20:07:00,72.3,55.8,30.09,NE,54,3.1,3.6,56,0.00,,---,0.00,VWS V14.01,2013-04-07 00:07:00,
2013-04-06 20:08:00,72.3,55.8,30.09,NE,56,2.7,3.6,56,0.00,,---,0.00,VWS V14.01,2013-04-07 00:08:00,
2013-04-06 20:12:00,72.3,55.8,30.09,NNE,25,3.1,4.5,56,0.00,,---,0.00,VWS V14.01,2013-04-07 00:12:00,
2013-04-06 20:13:00,72.3,55.8,30.09,NNE,24,2.7,2.7,56,0.00,,---,0.00,VWS V14.01,2013-04-07 00:13:00,
2013-04-06 20:15:00,72.1,55.6,30.09,NW,322,2.2,2.2,56,0.00,,---,0.00,VWS V14.01,2013-04-07 00:15:00,
2013-04-06 20:17:00,72.0,55.9,30.09,NW,307,0.0,3.1,57,0.00,,---,0.00,VWS V14.01,2013-04-07 00:17:00,
2013-04-06 20:18:00,72.0,55.9,30.09,NNE,16,4.9,6.3,57,0.00,,---,0.00,VWS V14.01,2013-04-07 00:18:00,
2013-04-06 20:20:00,72.0,55.9,30.09,NNW,332,4.9,4.9,57,0.00,,---,0.00,VWS V14.01,2013-04-07 00:20:00,
2013-04-06 20:22:00,72.0,55.9,30.09,North,0,2.7,3.6,57,0.00,,---,0.00,VWS V14.01,2013-04-07 00:22:00,
2013-04-06 20:23:00,72.0,55.9,30.09,North,0,3.1,3.1,57,0.00,,---,0.00,VWS V14.01,2013-04-07 00:23:00,
2013-04-06 20:25:00,71.8,55.8,30.09,North,3,2.7,2.7,57,0.00,,---,0.00,VWS V14.01,2013-04-07 00:25:00,
2013-04-06 20:27:00,71.8,55.8,30.09,NNW,341,3.1,3.1,57,0.00,,---,0.00,VWS V14.01,2013-04-07 00:27:00,
2013-04-06 20:28:00,71.8,55.8,30.09,NNW,341,2.2,3.1,57,0.00,,---,0.00,VWS V14.01,2013-04-07 00:28:00,
2013-04-06 20:29:00,71.8,55.8,30.09,NNW,341,0.0,3.1,57,0.00,,---,0.00,VWS V14.01,2013-04-07 00:29:00,
2013-04-06 20:30:00,71.6,55.6,30.09,NNW,337,2.2,2.2,57,0.00,,---,0.00,VWS V14.01,2013-04-07 00:30:00,
2013-04-06 20:33:00,71.6,55.6,30.09,NW,325,2.7,2.7,57,0.00,,---,0.00,VWS V14.01,2013-04-07 00:33:00,
2013-04-06 20:34:00,71.6,56.1,30.09,NW,325,2.7,2.7,58,0.00,,---,0.00,VWS V14.01,2013-04-07 00:34:00,
2013-04-06 20:35:00,71.6,56.1,30.09,NW,325,2.2,2.7,58,0.00,,---,0.00,VWS V14.01,2013-04-07 00:35:00,
2013-04-06 20:38:00,71.4,55.9,30.09,NW,324,2.7,3.1,58,0.00,,---,0.00,VWS V14.01,2013-04-07 00:38:00,
2013-04-06 20:39:00,71.4,55.9,30.09,NW,326,0.0,3.6,58,0.00,,---,0.00,VWS V14.01,2013-04-07 00:39:00,
2013-04-06 20:42:00,71.4,56.4,30.09,NW,314,2.7,4.0,59,0.00,,---,0.00,VWS V14.01,2013-04-07 00:42:00,
2013-04-06 20:43:00,71.2,56.2,30.09,NNW,327,2.7,3.1,59,0.00,,---,0.00,VWS V14.01,2013-04-07 00:43:00,
2013-04-06 20:44:00,71.2,56.2,30.09,NW,320,3.6,3.6,59,0.00,,---,0.00,VWS V14.01,2013-04-07 00:44:00,
2013-04-06 20:47:00,71.2,56.7,30.09,NW,321,0.0,0.0,60,0.00,,---,0.00,VWS V14.01,2013-04-07 00:47:00,
2013-04-06 20:48:00,71.2,56.7,30.09,NW,321,0.0,0.0,60,0.00,,---,0.00,VWS V14.01,2013-04-07 00:48:00,
2013-04-06 20:49:00,71.2,56.7,30.09,NW,326,2.7,2.7,60,0.00,,---,0.00,VWS V14.01,2013-04-07 00:49:00,
2013-04-06 20:50:00,71.2,56.7,30.09,NNW,329,3.6,3.6,60,0.00,,---,0.00,VWS V14.01,2013-04-07 00:50:00,
2013-04-06 20:52:00,71.1,56.5,30.09,WNW,287,2.2,3.6,60,0.00,,---,0.00,VWS V14.01,2013-04-07 00:52:00,
2013-04-06 20:53:00,71.1,57.0,30.09,NW,306,2.7,4.9,61,0.00,,---,0.00,VWS V14.01,2013-04-07 00:53:00,
2013-04-06 20:54:00,71.1,57.0,30.09,ENE,65,5.4,5.4,61,0.00,,---,0.00,VWS V14.01,2013-04-07 00:54:00,
2013-04-06 20:55:00,71.2,57.1,30.09,NE,55,0.0,5.4,61,0.00,,---,0.00,VWS V14.01,2013-04-07 00:55:00,
2013-04-06 20:57:00,71.1,57.0,30.09,WSW,245,0.0,3.6,61,0.00,,---,0.00,VWS V14.01,2013-04-07 00:57:00,
2013-04-06 20:58:00,71.1,57.0,30.09,WSW,245,2.7,2.7,61,0.00,,---,0.00,VWS V14.01,2013-04-07 00:58:00,
2013-04-06 21:00:00,71.1,57.0,30.09,WSW,245,0.0,3.1,61,0.00,,---,0.00,VWS V14.01,2013-04-07 01:00:00,
2013-04-06 21:02:00,71.1,57.0,30.09,WSW,246,3.1,3.1,61,0.00,,---,0.00,VWS V14.01,2013-04-07 01:02:00,
2013-04-06 21:03:00,71.1,57.0,30.09,WSW,247,4.0,4.0,61,0.00,,---,0.00,VWS V14.01,2013-04-07 01:03:00,
2013-04-06 21:05:00,71.1,57.4,30.09,NNW,346,2.7,3.1,62,0.00,,---,0.00,VWS V14.01,2013-04-07 01:05:00,
2013-04-06 21:07:00,71.1,57.4,30.09,North,4,3.1,4.9,62,0.00,,---,0.00,VWS V14.01,2013-04-07 01:07:00,
2013-04-06 21:08:00,71.1,57.4,30.09,North,4,0.0,3.6,62,0.00,,---,0.00,VWS V14.01,2013-04-07 01:08:00,
2013-04-06 21:10:00,71.1,57.4,30.09,NNW,328,2.2,2.2,62,0.00,,---,0.00,VWS V14.01,2013-04-07 01:10:00,
2013-04-06 21:11:00,71.1,57.4,30.09,NNW,328,2.2,2.2,62,0.00,,---,0.00,VWS V14.01,2013-04-07 01:11:00,
2013-04-06 21:13:00,71.1,57.8,30.09,North,0,3.6,4.9,63,0.00,,---,0.00,VWS V14.01,2013-04-07 01:13:00,
2013-04-06 21:14:00,71.1,57.8,30.09,North,357,3.6,3.6,63,0.00,,---,0.00,VWS V14.01,2013-04-07 01:14:00,
2013-04-06 21:15:00,71.1,57.8,30.09,NNW,343,3.6,5.4,63,0.00,,---,0.00,VWS V14.01,2013-04-07 01:15:00,
2013-04-06 21:16:00,71.1,57.8,30.09,North,353,3.1,5.4,63,0.00,,---,0.00,VWS V14.01,2013-04-07 01:16:00,
2013-04-06 21:18:00,71.1,58.3,30.12,NNW,330,3.1,3.1,64,0.00,,---,0.00,VWS V14.01,2013-04-07 01:18:00,
2013-04-06 21:19:00,71.1,58.3,30.12,NNW,330,2.7,3.1,64,0.00,,---,0.00,VWS V14.01,2013-04-07 01:19:00,
2013-04-06 21:20:00,71.1,58.3,30.12,NNW,330,0.0,2.7,64,0.00,,---,0.00,VWS V14.01,2013-04-07 01:20:00,
2013-04-06 21:22:00,71.1,58.3,30.12,NNW,330,0.0,0.0,64,0.00,,---,0.00,VWS V14.01,2013-04-07 01:22:00,
2013-04-06 21:23:00,70.9,58.1,30.12,NNW,330,0.0,0.0,64,0.00,,---,0.00,VWS V14.01,2013-04-07 01:23:00,
2013-04-06 21:24:00,70.9,58.1,30.12,NNW,330,2.7,2.7,64,0.00,,---,0.00,VWS V14.01,2013-04-07 01:24:00,
2013-04-06 21:25:00,70.9,58.1,30.12,NW,316,4.9,5.4,64,0.00,,---,0.00,VWS V14.01,2013-04-07 01:25:00,
2013-04-06 21:27:00,70.9,58.1,30.12,NW,316,0.0,0.0,64,0.00,,---,0.00,VWS V14.01,2013-04-07 01:27:00,
2013-04-06 21:28:00,70.9,58.5,30.12,NW,316,3.1,3.6,65,0.00,,---,0.00,VWS V14.01,2013-04-07 01:28:00,
2013-04-06 21:30:00,70.9,58.5,30.12,NW,317,0.0,3.1,65,0.00,,---,0.00,VWS V14.01,2013-04-07 01:30:00,
2013-04-06 21:32:00,70.9,58.5,30.12,North,349,0.0,0.0,65,0.00,,---,0.00,VWS V14.01,2013-04-07 01:32:00,
2013-04-06 21:34:00,70.9,58.5,30.12,NNE,22,4.9,6.3,65,0.00,,---,0.00,VWS V14.01,2013-04-07 01:34:00,
2013-04-06 21:35:00,70.9,58.5,30.12,NNE,16,0.0,2.7,65,0.00,,---,0.00,VWS V14.01,2013-04-07 01:35:00,
2013-04-06 21:37:00,70.9,59.0,30.12,NNE,16,0.0,0.0,66,0.00,,---,0.00,VWS V14.01,2013-04-07 01:37:00,
2013-04-06 21:38:00,70.9,59.0,30.12,North,8,3.1,3.1,66,0.00,,---,0.00,VWS V14.01,2013-04-07 01:38:00,
2013-04-06 21:39:00,70.9,59.0,30.12,North,8,0.0,0.0,66,0.00,,---,0.00,VWS V14.01,2013-04-07 01:39:00,
2013-04-06 21:40:00,70.9,59.0,30.12,North,8,0.0,0.0,66,0.00,,---,0.00,VWS V14.01,2013-04-07 01:40:00,
2013-04-06 21:42:00,70.7,58.8,30.12,North,7,2.7,3.1,66,0.00,,---,0.00,VWS V14.01,2013-04-07 01:42:00,
2013-04-06 21:43:00,70.7,58.8,30.12,North,3,2.7,4.0,66,0.00,,---,0.00,VWS V14.01,2013-04-07 01:43:00,
2013-04-06 21:44:00,70.7,58.8,30.12,NNE,29,4.0,4.0,66,0.00,,---,0.00,VWS V14.01,2013-04-07 01:44:00,
2013-04-06 21:45:00,70.7,58.8,30.12,NNE,28,2.7,2.7,66,0.00,,---,0.00,VWS V14.01,2013-04-07 01:45:00,
2013-04-06 21:47:00,70.7,59.2,30.12,NE,34,4.0,4.0,67,0.00,,---,0.00,VWS V14.01,2013-04-07 01:47:00,
2013-04-06 21:48:00,70.7,59.2,30.12,NNW,329,2.7,4.9,67,0.00,,---,0.00,VWS V14.01,2013-04-07 01:48:00,
2013-04-06 21:50:00,70.7,59.2,30.12,NNW,329,0.0,2.2,67,0.00,,---,0.00,VWS V14.01,2013-04-07 01:50:00,
2013-04-06 21:52:00,70.7,59.2,30.12,NNW,342,2.7,3.1,67,0.00,,---,0.00,VWS V14.01,2013-04-07 01:52:00,
2013-04-06 21:54:00,70.7,59.2,30.12,NNW,343,0.0,3.6,67,0.00,,---,0.00,VWS V14.01,2013-04-07 01:54:00,
2013-04-06 21:55:00,70.7,59.2,30.12,NNW,332,2.2,3.6,67,0.00,,---,0.00,VWS V14.01,2013-04-07 01:55:00,
2013-04-06 21:58:00,70.7,59.2,30.12,North,357,0.0,4.5,67,0.00,,---,0.00,VWS V14.01,2013-04-07 01:58:00,
2013-04-06 21:59:00,70.7,59.2,30.12,North,357,2.2,2.7,67,0.00,,---,0.00,VWS V14.01,2013-04-07 01:59:00,
2013-04-06 22:00:00,70.7,59.2,30.12,North,357,0.0,2.2,67,0.00,,---,0.00,VWS V14.01,2013-04-07 02:00:00,
2013-04-06 22:01:00,70.7,59.2,30.12,North,3,4.0,4.0,67,0.00,,---,0.00,VWS V14.01,2013-04-07 02:01:00,
2013-04-06 22:02:00,70.7,59.2,30.12,NNW,335,0.0,3.6,67,0.00,,---,0.00,VWS V14.01,2013-04-07 02:02:00,
2013-04-06 22:05:00,70.7,59.2,30.12,NNW,335,2.2,2.2,67,0.00,,---,0.00,VWS V14.01,2013-04-07 02:05:00,
2013-04-06 22:06:00,70.7,59.6,30.12,NNW,333,0.0,3.1,68,0.00,,---,0.00,VWS V14.01,2013-04-07 02:06:00,
2013-04-06 22:08:00,70.7,59.6,30.12,NNW,333,2.2,2.7,68,0.00,,---,0.00,VWS V14.01,2013-04-07 02:08:00,
2013-04-06 22:10:00,70.5,59.5,30.12,NNE,33,0.0,3.6,68,0.00,,---,0.00,VWS V14.01,2013-04-07 02:10:00,
2013-04-06 22:12:00,70.5,59.5,30.12,NNE,13,0.0,3.6,68,0.00,,---,0.00,VWS V14.01,2013-04-07 02:12:00,
2013-04-06 22:13:00,70.5,59.5,30.12,NNE,13,0.0,0.0,68,0.00,,---,0.00,VWS V14.01,2013-04-07 02:13:00,
2013-04-06 22:15:00,70.7,59.6,30.12,North,8,0.0,2.2,68,0.00,,---,0.00,VWS V14.01,2013-04-07 02:15:00,
2013-04-06 22:17:00,70.7,59.6,30.12,North,8,0.0,0.0,68,0.00,,---,0.00,VWS V14.01,2013-04-07 02:17:00,
2013-04-06 22:19:00,70.5,59.5,30.12,NNW,348,3.1,3.1,68,0.00,,---,0.00,VWS V14.01,2013-04-07 02:19:00,
2013-04-06 22:20:00,70.5,59.5,30.12,NW,316,2.7,4.0,68,0.00,,---,0.00,VWS V14.01,2013-04-07 02:20:00,
2013-04-06 22:21:00,70.5,59.5,30.12,North,6,3.1,4.0,68,0.00,,---,0.00,VWS V14.01,2013-04-07 02:21:00,
2013-04-06 22:22:00,70.5,59.5,30.12,NNE,22,4.0,4.5,68,0.00,,---,0.00,VWS V14.01,2013-04-07 02:22:00,
2013-04-06 22:24:00,70.5,59.5,30.12,North,7,3.1,4.0,68,0.00,,---,0.00,VWS V14.01,2013-04-07 02:24:00,
2013-04-06 22:25:00,70.5,59.5,30.12,NNE,12,3.6,3.6,68,0.00,,---,0.00,VWS V14.01,2013-04-07 02:25:00,
2013-04-06 22:26:00,70.5,59.5,30.12,NNE,12,0.0,3.6,68,0.00,,---,0.00,VWS V14.01,2013-04-07 02:26:00,
2013-04-06 22:27:00,70.5,59.9,30.12,North,10,0.0,0.0,69,0.00,,---,0.00,VWS V14.01,2013-04-07 02:27:00,
2013-04-06 22:29:00,70.5,59.9,30.12,North,353,4.0,4.0,69,0.00,,---,0.00,VWS V14.01,2013-04-07 02:29:00,
2013-04-06 22:31:00,70.5,59.9,30.12,NNW,337,0.0,3.1,69,0.00,,---,0.00,VWS V14.01,2013-04-07 02:31:00,
2013-04-06 22:32:00,70.5,59.5,30.12,North,357,3.1,3.1,68,0.00,,---,0.00,VWS V14.01,2013-04-07 02:32:00,
2013-04-06 22:34:00,70.7,59.6,30.12,NW,324,2.2,4.0,68,0.00,,---,0.00,VWS V14.01,2013-04-07 02:34:00,
2013-04-06 22:36:00,70.7,59.6,30.12,WNW,283,3.6,3.6,68,0.00,,---,0.00,VWS V14.01,2013-04-07 02:36:00,
2013-04-06 22:37:00,70.7,59.6,30.12,NNW,336,2.7,3.6,68,0.00,,---,0.00,VWS V14.01,2013-04-07 02:37:00,
2013-04-06 22:39:00,70.7,59.6,30.12,NNW,334,0.0,0.0,68,0.00,,---,0.00,VWS V14.01,2013-04-07 02:39:00,
2013-04-06 22:41:00,70.7,59.6,30.12,WNW,302,2.7,2.7,68,0.00,,---,0.00,VWS V14.01,2013-04-07 02:41:00,
2013-04-06 22:42:00,70.7,59.6,30.12,NNE,20,2.7,2.7,68,0.00,,---,0.00,VWS V14.01,2013-04-07 02:42:00,
2013-04-06 22:45:00,70.7,59.6,30.12,North,357,0.0,2.7,68,0.00,,---,0.00,VWS V14.01,2013-04-07 02:45:00,
2013-04-06 22:46:00,70.7,59.6,30.12,North,357,0.0,0.0,68,0.00,,---,0.00,VWS V14.01,2013-04-07 02:46:00,
2013-04-06 22:47:00,70.9,59.8,30.12,NE,56,2.2,3.6,68,0.00,,---,0.00,VWS V14.01,2013-04-07 02:47:00,
2013-04-06 22:48:00,70.9,59.8,30.12,NE,56,2.2,3.6,68,0.00,,---,0.00,VWS V14.01,2013-04-07 02:48:00,
2013-04-06 22:50:00,70.9,60.2,30.12,WSW,250,2.2,4.0,69,0.00,,---,0.00,VWS V14.01,2013-04-07 02:50:00,
2013-04-06 22:51:00,70.9,60.2,30.12,WNW,294,3.6,3.6,69,0.00,,---,0.00,VWS V14.01,2013-04-07 02:51:00,
2013-04-06 22:53:00,70.9,60.2,30.12,NW,312,0.0,0.0,69,0.00,,---,0.00,VWS V14.01,2013-04-07 02:53:00,
2013-04-06 22:55:00,70.9,60.2,30.12,South,190,0.0,4.9,69,0.00,,---,0.00,VWS V14.01,2013-04-07 02:55:00,
2013-04-06 22:56:00,70.9,60.2,30.12,SSW,198,0.0,2.2,69,0.00,,---,0.00,VWS V14.01,2013-04-07 02:56:00,
2013-04-06 22:58:00,70.9,60.2,30.12,NNW,329,0.0,4.0,69,0.00,,---,0.00,VWS V14.01,2013-04-07 02:58:00,
2013-04-06 23:00:00,70.9,60.2,30.12,North,353,2.7,4.0,69,0.00,,---,0.00,VWS V14.01,2013-04-07 03:00:00,
2013-04-06 23:01:00,70.9,60.2,30.12,North,353,3.1,4.5,69,0.00,,---,0.00,VWS V14.01,2013-04-07 03:01:00,
2013-04-06 23:03:00,70.9,60.2,30.12,North,7,2.2,2.2,69,0.00,,---,0.00,VWS V14.01,2013-04-07 03:03:00,
2013-04-06 23:05:00,71.1,60.4,30.12,NNW,331,2.7,5.8,69,0.00,,---,0.00,VWS V14.01,2013-04-07 03:05:00,
2013-04-06 23:06:00,71.1,60.4,30.12,North,357,0.0,4.0,69,0.00,,---,0.00,VWS V14.01,2013-04-07 03:06:00,
2013-04-06 23:08:00,71.1,60.4,30.12,North,353,5.4,6.3,69,0.00,,---,0.00,VWS V14.01,2013-04-07 03:08:00,
2013-04-06 23:10:00,71.1,60.4,30.12,NNE,18,3.1,4.0,69,0.00,,---,0.00,VWS V14.01,2013-04-07 03:10:00,
2013-04-06 23:12:00,71.1,60.8,30.12,SW,227,2.7,4.9,70,0.00,,---,0.00,VWS V14.01,2013-04-07 03:12:00,
2013-04-06 23:13:00,71.1,60.8,30.12,North,5,4.0,5.4,70,0.00,,---,0.00,VWS V14.01,2013-04-07 03:13:00,
2013-04-06 23:15:00,71.1,60.8,30.12,SSE,160,0.0,2.2,70,0.00,,---,0.00,VWS V14.01,2013-04-07 03:15:00,
2013-04-06 23:17:00,71.1,60.8,30.12,SSW,200,3.1,3.1,70,0.00,,---,0.00,VWS V14.01,2013-04-07 03:17:00,
2013-04-06 23:18:00,71.1,60.8,30.12,SSW,198,0.0,3.1,70,0.00,,---,0.00,VWS V14.01,2013-04-07 03:18:00,
2013-04-06 23:20:00,71.1,60.8,30.12,NNW,332,2.7,3.1,70,0.00,,---,0.00,VWS V14.01,2013-04-07 03:20:00,
2013-04-06 23:22:00,71.1,60.8,30.12,NNW,333,0.0,0.0,70,0.00,,---,0.00,VWS V14.01,2013-04-07 03:22:00,
2013-04-06 23:23:00,71.1,60.8,30.12,NNE,12,3.1,3.1,70,0.00,,---,0.00,VWS V14.01,2013-04-07 03:23:00,
2013-04-06 23:25:00,71.1,60.8,30.12,NNE,33,2.7,5.8,70,0.00,,---,0.00,VWS V14.01,2013-04-07 03:25:00,
2013-04-06 23:28:00,71.1,60.8,30.12,SSW,194,0.0,4.0,70,0.00,,---,0.00,VWS V14.01,2013-04-07 03:28:00,
2013-04-06 23:31:00,71.1,60.8,30.12,NE,40,0.0,0.0,70,0.00,,---,0.00,VWS V14.01,2013-04-07 03:31:00,
2013-04-06 23:33:00,71.1,60.8,30.12,SSE,158,2.7,4.0,70,0.00,,---,0.00,VWS V14.01,2013-04-07 03:33:00,
2013-04-06 23:34:00,71.1,60.8,30.12,SSE,158,0.0,0.0,70,0.00,,---,0.00,VWS V14.01,2013-04-07 03:34:00,
2013-04-06 23:36:00,70.9,60.6,30.12,South,186,3.1,3.6,70,0.00,,---,0.00,VWS V14.01,2013-04-07 03:36:00,
2013-04-06 23:38:00,71.1,60.8,30.12,SSE,161,3.6,3.6,70,0.00,,---,0.00,VWS V14.01,2013-04-07 03:38:00,
2013-04-06 23:40:00,71.1,60.8,30.12,SW,229,0.0,4.9,70,0.00,,---,0.00,VWS V14.01,2013-04-07 03:40:00,
2013-04-06 23:41:00,71.1,60.8,30.12,North,7,4.0,4.9,70,0.00,,---,0.00,VWS V14.01,2013-04-07 03:41:00,
2013-04-06 23:43:00,71.1,60.8,30.12,NNE,30,0.0,3.1,70,0.00,,---,0.00,VWS V14.01,2013-04-07 03:43:00,
2013-04-06 23:45:00,71.1,60.8,30.12,NNE,12,2.7,2.7,70,0.00,,---,0.00,VWS V14.01,2013-04-07 03:45:00,
2013-04-06 23:47:00,71.1,60.8,30.12,North,6,3.6,4.0,70,0.00,,---,0.00,VWS V14.01,2013-04-07 03:47:00,
2013-04-06 23:48:00,71.1,60.8,30.12,North,6,0.0,2.7,70,0.00,,---,0.00,VWS V14.01,2013-04-07 03:48:00,
2013-04-06 23:49:00,71.1,60.8,30.12,North,6,0.0,2.7,70,0.00,,---,0.00,VWS V14.01,2013-04-07 03:49:00,
2013-04-06 23:50:00,71.1,60.8,30.12,SSW,213,2.7,3.6,70,0.00,,---,0.00,VWS V14.01,2013-04-07 03:50:00,
2013-04-06 23:52:00,71.1,60.8,30.12,NE,35,2.7,2.7,70,0.00,,---,0.00,VWS V14.01,2013-04-07 03:52:00,
2013-04-06 23:54:00,71.1,60.4,30.12,SSE,150,0.0,2.7,69,0.00,,---,0.00,VWS V14.01,2013-04-07 03:54:00,
2013-04-06 23:55:00,71.1,60.4,30.12,SSE,150,0.0,0.0,69,0.00,,---,0.00,VWS V14.01,2013-04-07 03:55:00,
2013-04-06 23:58:00,71.1,60.4,30.12,NW,326,4.0,4.0,69,0.00,,---,0.00,VWS V14.01,2013-04-07 03:58:00,
2013-04-06 23:59:00,71.1,60.4,30.12,WNW,282,3.6,3.6,69,0.00,,---,0.00,VWS V14.01,2013-04-07 03:59:00,